ANA125 KLAX-RJTT

Flight info

Callsign ANA125
Flight time 11h 15m
Altitude 36000
Route SUMMR2 MCKEY DCT LIBBO DCT BRINY DCT BOARS DCT AMAKR DCT BOXER DCT FULMR DCT FASEL DCT 52N140W 56N150W/N0489F380 DCT CUDDA DCT ALUFF DCT POOFF DCT HEDMI/N0502F400 M523 IPGUD Y800 ESNIP Y810 AKRIT Y807 POLIX POLIX2K
Aircraft B789/H-SDE1E2E3FGHIJ2J3J4J5M1RWXY/LB1D1

Departure

Time 2026-04-26 03:45
Airport Los Angeles International Airport (KLAX)

Arrival

Time 2026-04-26 15:00
Airport Tokyo Haneda International Airport (RJTT)
Time Latitude Longitude Altitude Speed Heading
2026-04-26 03:19 33.94460 -118.41139 98 ft 0 kts 84°
2026-04-26 03:34 33.94458 -118.41168 98 ft 4 kts 84°
2026-04-26 03:34 33.94455 -118.41200 98 ft 4 kts 84°
2026-04-26 03:35 33.94452 -118.41225 97 ft 4 kts 66°
2026-04-26 03:35 33.94441 -118.41242 98 ft 4 kts 18°
2026-04-26 03:35 33.94419 -118.41244 99 ft 3 kts 353°
2026-04-26 03:35 33.94392 -118.41240 98 ft 3 kts 353°
2026-04-26 03:36 33.94389 -118.41239 98 ft 0 kts 353°
2026-04-26 03:39 33.94391 -118.41239 98 ft 1 kts 353°
2026-04-26 03:39 33.94406 -118.41242 98 ft 4 kts 353°
2026-04-26 03:39 33.94440 -118.41247 100 ft 6 kts 353°
2026-04-26 03:39 33.94494 -118.41255 98 ft 9 kts 353°
2026-04-26 03:40 33.94569 -118.41265 99 ft 12 kts 353°
2026-04-26 03:40 33.94654 -118.41277 99 ft 12 kts 352°
2026-04-26 03:40 33.94736 -118.41290 101 ft 11 kts 356°
2026-04-26 03:40 33.94788 -118.41251 100 ft 8 kts 62°
2026-04-26 03:41 33.94804 -118.41173 103 ft 11 kts 82°
2026-04-26 03:41 33.94815 -118.41066 103 ft 15 kts 82°
2026-04-26 03:41 33.94828 -118.40934 100 ft 16 kts 84°
2026-04-26 03:41 33.94841 -118.40803 100 ft 16 kts 83°
2026-04-26 03:42 33.94854 -118.40672 101 ft 15 kts 83°
2026-04-26 03:42 33.94868 -118.40547 99 ft 15 kts 82°
2026-04-26 03:42 33.94882 -118.40414 100 ft 17 kts 83°
2026-04-26 03:42 33.94897 -118.40274 101 ft 17 kts 83°
2026-04-26 03:43 33.94911 -118.40138 99 ft 16 kts 83°
2026-04-26 03:43 33.94924 -118.40001 98 ft 16 kts 83°
2026-04-26 03:43 33.94978 -118.39914 99 ft 13 kts 16°
2026-04-26 03:43 33.95039 -118.39960 98 ft 10 kts 285°
2026-04-26 03:44 33.95034 -118.40035 102 ft 16 kts 264°
2026-04-26 03:44 33.94998 -118.40388 102 ft 74 kts 263°
2026-04-26 03:44 33.94908 -118.41254 104 ft 135 kts 263°
2026-04-26 03:44 33.94770 -118.42600 127 ft 185 kts 262°
2026-04-26 03:45 33.94629 -118.44097 1104 ft 167 kts 264°
2026-04-26 03:45 33.94513 -118.45478 2033 ft 173 kts 263°
2026-04-26 03:45 33.94393 -118.47030 2367 ft 201 kts 267°
2026-04-26 03:45 33.94334 -118.48829 2726 ft 229 kts 265°
2026-04-26 03:46 33.94218 -118.50847 3103 ft 255 kts 262°
2026-04-26 03:46 33.93990 -118.52967 4107 ft 253 kts 265°
2026-04-26 03:46 33.93889 -118.55105 5106 ft 256 kts 266°
2026-04-26 03:47 33.93563 -118.59394 7063 ft 258 kts 263°
2026-04-26 03:47 33.93387 -118.61559 7982 ft 261 kts 264°
2026-04-26 03:47 33.93215 -118.63747 8880 ft 264 kts 264°
2026-04-26 03:47 33.93043 -118.65948 9817 ft 264 kts 264°
2026-04-26 03:48 33.92871 -118.68193 10415 ft 280 kts 264°
2026-04-26 03:48 33.92683 -118.70639 10610 ft 307 kts 264°
2026-04-26 03:48 33.92474 -118.73317 10779 ft 334 kts 263°
2026-04-26 03:48 33.92252 -118.76164 11415 ft 343 kts 264°
2026-04-26 03:49 33.92029 -118.79051 12039 ft 353 kts 263°
2026-04-26 03:49 33.91794 -118.82015 12007 ft 352 kts 264°
2026-04-26 03:49 33.91754 -118.84929 12061 ft 351 kts 273°
2026-04-26 03:49 33.91869 -118.87841 12961 ft 348 kts 270°
2026-04-26 03:50 33.91918 -118.90767 13793 ft 351 kts 269°
2026-04-26 03:50 33.91992 -118.93715 14573 ft 353 kts 270°
2026-04-26 03:50 33.92092 -118.96693 15274 ft 358 kts 270°
2026-04-26 03:50 33.92282 -118.99694 15960 ft 364 kts 278°
2026-04-26 03:51 33.92973 -119.02638 16662 ft 370 kts 288°
2026-04-26 03:51 33.94174 -119.05408 17348 ft 377 kts 297°
2026-04-26 03:51 33.95559 -119.08112 17966 ft 382 kts 297°
2026-04-26 03:51 33.96969 -119.10832 18620 ft 385 kts 297°
2026-04-26 03:52 33.98394 -119.13576 19221 ft 388 kts 297°
2026-04-26 03:52 33.99837 -119.16346 19789 ft 393 kts 300°
2026-04-26 03:52 34.01627 -119.18893 20314 ft 404 kts 311°
2026-04-26 03:52 34.03841 -119.21076 20696 ft 417 kts 320°
2026-04-26 03:53 34.06213 -119.23107 21214 ft 419 kts 320°
2026-04-26 03:53 34.08596 -119.25170 21691 ft 423 kts 320°
2026-04-26 03:53 34.11001 -119.27240 22186 ft 427 kts 320°
2026-04-26 03:53 34.13430 -119.29322 22665 ft 430 kts 320°
2026-04-26 03:54 34.15877 -119.31428 23111 ft 433 kts 320°
2026-04-26 03:54 34.18337 -119.33549 23563 ft 436 kts 320°
2026-04-26 03:54 34.20781 -119.35658 23943 ft 439 kts 320°
2026-04-26 03:54 34.23274 -119.37810 24377 ft 442 kts 320°
2026-04-26 03:55 34.25815 -119.40004 24786 ft 445 kts 320°
2026-04-26 03:55 34.28302 -119.42152 25194 ft 446 kts 319°
2026-04-26 03:55 34.30836 -119.44345 25527 ft 450 kts 319°
2026-04-26 03:55 34.33385 -119.46553 25904 ft 452 kts 319°
2026-04-26 03:56 34.35948 -119.48772 26310 ft 454 kts 319°
2026-04-26 03:56 34.38520 -119.51001 26655 ft 456 kts 319°
2026-04-26 03:56 34.41018 -119.53358 26963 ft 453 kts 310°
2026-04-26 03:56 34.43154 -119.56140 27310 ft 450 kts 305°
2026-04-26 03:57 34.45199 -119.59027 27650 ft 452 kts 305°
2026-04-26 03:57 34.47244 -119.61936 27981 ft 455 kts 305°
2026-04-26 03:57 34.49301 -119.64865 28300 ft 457 kts 305°
2026-04-26 03:57 34.51371 -119.67800 28619 ft 459 kts 305°
2026-04-26 03:58 34.53453 -119.70750 28899 ft 461 kts 304°
2026-04-26 03:58 34.55536 -119.73711 29209 ft 462 kts 304°
2026-04-26 03:58 34.57623 -119.76690 29465 ft 465 kts 304°
2026-04-26 03:58 34.59724 -119.79689 29779 ft 467 kts 304°
2026-04-26 03:59 34.61838 -119.82699 30076 ft 469 kts 304°
2026-04-26 03:59 34.63956 -119.85721 30312 ft 471 kts 304°
2026-04-26 03:59 34.66084 -119.88764 30565 ft 474 kts 304°
2026-04-26 03:59 34.68222 -119.91821 30810 ft 476 kts 304°
2026-04-26 04:00 34.70368 -119.94893 31024 ft 478 kts 304°
2026-04-26 04:00 34.72525 -119.97983 31233 ft 480 kts 304°
2026-04-26 04:00 34.74690 -120.01087 31552 ft 481 kts 304°
2026-04-26 04:00 34.76849 -120.04182 31968 ft 479 kts 305°
2026-04-26 04:01 34.79000 -120.07267 32298 ft 477 kts 305°
2026-04-26 04:01 34.81144 -120.10353 32500 ft 479 kts 305°
2026-04-26 04:01 34.83294 -120.13447 32820 ft 478 kts 305°
2026-04-26 04:01 34.85414 -120.16498 33088 ft 478 kts 305°
2026-04-26 04:02 34.87561 -120.19594 33356 ft 479 kts 306°
2026-04-26 04:02 34.89739 -120.22737 33648 ft 479 kts 306°
2026-04-26 04:02 34.91857 -120.25792 33897 ft 478 kts 306°
2026-04-26 04:02 34.94001 -120.28891 34144 ft 479 kts 306°
2026-04-26 04:03 34.96141 -120.31989 34366 ft 478 kts 305°
2026-04-26 04:03 34.98283 -120.35090 34580 ft 478 kts 306°
2026-04-26 04:03 35.00426 -120.38192 34839 ft 478 kts 306°
2026-04-26 04:03 35.02567 -120.41297 35067 ft 478 kts 305°
2026-04-26 04:04 35.04706 -120.44407 35349 ft 478 kts 306°
2026-04-26 04:04 35.06870 -120.47553 35609 ft 478 kts 306°
2026-04-26 04:04 35.08981 -120.50621 35833 ft 479 kts 306°
2026-04-26 04:04 35.11154 -120.53781 35978 ft 480 kts 306°
2026-04-26 04:05 35.13280 -120.56877 35962 ft 484 kts 306°
2026-04-26 04:05 35.17590 -120.63161 35961 ft 480 kts 306°
2026-04-26 04:06 35.21869 -120.69417 35962 ft 479 kts 306°
2026-04-26 04:06 35.25446 -120.74650 35975 ft 480 kts 306°
2026-04-26 04:07 35.29712 -120.80910 35969 ft 477 kts 306°
2026-04-26 04:07 35.33965 -120.87153 35963 ft 477 kts 306°
2026-04-26 04:08 35.38208 -120.93402 35980 ft 477 kts 306°
2026-04-26 04:08 35.42450 -120.99653 35978 ft 477 kts 306°
2026-04-26 04:09 35.46694 -121.05926 35982 ft 478 kts 306°
2026-04-26 04:09 35.50950 -121.12146 35991 ft 479 kts 307°
2026-04-26 04:10 35.55334 -121.18386 35983 ft 478 kts 307°
2026-04-26 04:10 35.59613 -121.24588 35985 ft 479 kts 307°
2026-04-26 04:11 35.63939 -121.30815 35983 ft 479 kts 307°
2026-04-26 04:11 35.68254 -121.37064 35981 ft 480 kts 307°
2026-04-26 04:12 35.72568 -121.43311 35977 ft 479 kts 307°
2026-04-26 04:12 35.76874 -121.49564 35976 ft 479 kts 307°
2026-04-26 04:13 35.81173 -121.55814 35970 ft 478 kts 307°
2026-04-26 04:13 35.85470 -121.62074 35971 ft 478 kts 307°
2026-04-26 04:14 35.89766 -121.68350 35973 ft 479 kts 308°
2026-04-26 04:14 35.94073 -121.74640 35971 ft 481 kts 308°
2026-04-26 04:15 35.98406 -121.80907 35985 ft 480 kts 313°
2026-04-26 04:15 36.03861 -121.85735 35984 ft 488 kts 331°
2026-04-26 04:16 36.09932 -121.89531 35974 ft 489 kts 330°
2026-04-26 04:16 36.16007 -121.93321 35970 ft 489 kts 330°
2026-04-26 04:17 36.22070 -121.97123 35969 ft 489 kts 330°
2026-04-26 04:17 36.28136 -122.00925 35973 ft 489 kts 330°
2026-04-26 04:18 36.34205 -122.04744 35969 ft 490 kts 330°
2026-04-26 04:18 36.40267 -122.08559 35969 ft 488 kts 330°
2026-04-26 04:19 36.46309 -122.12370 35966 ft 487 kts 330°
2026-04-26 04:19 36.52347 -122.16183 35964 ft 486 kts 330°
2026-04-26 04:20 36.58382 -122.20005 35966 ft 488 kts 330°
2026-04-26 04:20 36.64431 -122.23840 35957 ft 488 kts 330°
2026-04-26 04:21 36.70472 -122.27680 35960 ft 487 kts 330°
2026-04-26 04:21 36.76515 -122.31520 35960 ft 487 kts 330°
2026-04-26 04:22 36.82549 -122.35367 35959 ft 487 kts 331°
2026-04-26 04:22 36.88533 -122.39191 35959 ft 486 kts 331°
2026-04-26 04:23 36.94569 -122.43049 35949 ft 487 kts 331°
2026-04-26 04:23 37.00602 -122.46914 35952 ft 488 kts 331°
2026-04-26 04:24 37.06630 -122.50788 35952 ft 487 kts 331°
2026-04-26 04:24 37.12662 -122.54666 35940 ft 487 kts 331°
2026-04-26 04:25 37.18691 -122.58553 35940 ft 487 kts 331°
2026-04-26 04:25 37.24718 -122.62440 35940 ft 487 kts 331°
2026-04-26 04:26 37.30749 -122.66298 35943 ft 487 kts 336°
2026-04-26 04:26 37.37064 -122.69443 35945 ft 490 kts 337°
2026-04-26 04:27 37.43386 -122.72603 35944 ft 489 kts 337°
2026-04-26 04:27 37.49719 -122.75771 35942 ft 490 kts 337°
2026-04-26 04:28 37.56054 -122.78946 35943 ft 489 kts 337°
2026-04-26 04:28 37.62372 -122.82117 35944 ft 488 kts 337°
2026-04-26 04:29 37.68641 -122.85267 35932 ft 487 kts 337°
2026-04-26 04:29 37.74934 -122.88443 35929 ft 487 kts 337°
2026-04-26 04:30 37.81229 -122.91614 35926 ft 486 kts 337°
2026-04-26 04:30 37.87511 -122.94794 35930 ft 487 kts 337°
2026-04-26 04:31 37.93801 -122.97978 35924 ft 487 kts 337°
2026-04-26 04:31 38.00089 -123.01169 35926 ft 486 kts 337°
2026-04-26 04:32 38.06349 -123.04353 35923 ft 484 kts 337°
2026-04-26 04:32 38.12602 -123.07539 35913 ft 485 kts 337°
2026-04-26 04:33 38.18878 -123.10743 35914 ft 485 kts 337°
2026-04-26 04:33 38.24907 -123.14446 35922 ft 481 kts 327°
2026-04-26 04:34 38.30594 -123.18980 35918 ft 483 kts 327°
2026-04-26 04:34 38.36278 -123.23525 35917 ft 482 kts 327°
2026-04-26 04:35 38.41954 -123.28058 35919 ft 481 kts 327°
2026-04-26 04:35 38.47620 -123.32606 35919 ft 481 kts 327°
2026-04-26 04:36 38.53291 -123.37153 35912 ft 482 kts 327°
2026-04-26 04:36 38.58960 -123.41719 35902 ft 480 kts 327°
2026-04-26 04:37 38.64610 -123.46272 35902 ft 480 kts 327°
2026-04-26 04:37 38.70259 -123.50837 35902 ft 481 kts 327°
2026-04-26 04:38 38.75872 -123.55376 35903 ft 480 kts 327°
2026-04-26 04:38 38.81515 -123.59952 35904 ft 480 kts 327°
2026-04-26 04:39 38.87168 -123.64544 35907 ft 481 kts 327°
2026-04-26 04:39 38.92822 -123.69143 35905 ft 480 kts 326°
2026-04-26 04:40 38.98459 -123.73738 35904 ft 480 kts 326°
2026-04-26 04:40 39.04381 -123.77687 35910 ft 481 kts 333°
2026-04-26 04:41 39.10416 -123.81411 35912 ft 481 kts 333°
2026-04-26 04:41 39.16452 -123.85133 35915 ft 480 kts 333°
2026-04-26 04:42 39.22473 -123.88856 35915 ft 480 kts 333°
2026-04-26 04:42 39.28497 -123.92586 35916 ft 480 kts 333°
2026-04-26 04:43 39.34510 -123.96320 35916 ft 479 kts 333°
2026-04-26 04:43 39.40505 -124.00044 35914 ft 478 kts 333°
2026-04-26 04:44 39.46489 -124.03774 35915 ft 478 kts 333°
2026-04-26 04:44 39.52465 -124.07503 35918 ft 476 kts 333°
2026-04-26 04:45 39.58430 -124.11235 35915 ft 477 kts 333°
2026-04-26 04:45 39.64411 -124.14983 35919 ft 478 kts 333°
2026-04-26 04:46 39.70400 -124.18742 35922 ft 479 kts 332°
2026-04-26 04:46 39.76399 -124.22514 35924 ft 479 kts 333°
2026-04-26 04:47 39.82385 -124.26288 35924 ft 478 kts 332°
2026-04-26 04:47 39.88360 -124.30059 35922 ft 476 kts 332°
2026-04-26 04:48 39.97300 -124.35723 35919 ft 477 kts 332°
2026-04-26 04:48 40.03280 -124.39513 35925 ft 479 kts 332°
2026-04-26 04:49 40.09238 -124.43302 35924 ft 475 kts 332°
2026-04-26 04:49 40.15177 -124.47084 35923 ft 474 kts 332°
2026-04-26 04:50 40.21072 -124.50847 35926 ft 474 kts 332°
2026-04-26 04:50 40.26989 -124.54632 35924 ft 473 kts 332°
2026-04-26 04:51 40.32911 -124.58423 35924 ft 474 kts 332°
2026-04-26 04:51 40.38807 -124.62214 35922 ft 471 kts 332°
2026-04-26 04:52 40.44694 -124.65999 35925 ft 471 kts 332°
2026-04-26 04:52 40.50582 -124.69793 35929 ft 471 kts 332°
2026-04-26 04:53 40.55475 -124.72954 35923 ft 470 kts 332°
2026-04-26 04:53 40.62285 -124.77358 35920 ft 468 kts 332°
2026-04-26 04:54 40.68138 -124.81150 35922 ft 469 kts 332°
2026-04-26 04:54 40.73034 -124.84336 35919 ft 467 kts 332°
2026-04-26 04:55 40.78868 -124.88125 35922 ft 466 kts 332°
2026-04-26 04:55 40.84689 -124.91927 35911 ft 468 kts 332°
2026-04-26 04:56 40.90476 -124.95706 35917 ft 467 kts 332°
2026-04-26 04:56 40.96328 -124.99537 35915 ft 465 kts 332°
2026-04-26 04:57 41.02088 -125.03307 35915 ft 465 kts 332°
2026-04-26 04:57 41.07877 -125.07126 35915 ft 464 kts 333°
2026-04-26 04:58 41.13661 -125.10923 35915 ft 464 kts 333°
2026-04-26 04:58 41.19430 -125.14734 35913 ft 462 kts 332°
2026-04-26 04:59 41.25188 -125.18537 35916 ft 462 kts 332°
2026-04-26 04:59 41.30937 -125.22345 35916 ft 462 kts 332°
2026-04-26 05:00 41.36694 -125.26168 35917 ft 463 kts 332°
2026-04-26 05:00 41.42449 -125.29995 35916 ft 461 kts 332°
2026-04-26 05:01 41.48182 -125.33815 35913 ft 460 kts 332°
2026-04-26 05:01 41.53905 -125.37637 35912 ft 459 kts 332°
2026-04-26 05:02 41.59607 -125.41449 35909 ft 458 kts 333°
2026-04-26 05:02 41.65310 -125.45269 35912 ft 459 kts 332°
2026-04-26 05:03 41.71018 -125.49106 35906 ft 459 kts 332°
2026-04-26 05:03 41.76716 -125.52942 35904 ft 458 kts 332°
2026-04-26 05:04 41.82396 -125.56775 35903 ft 456 kts 333°
2026-04-26 05:04 41.88075 -125.60606 35903 ft 456 kts 332°
2026-04-26 05:05 41.93744 -125.64447 35906 ft 457 kts 332°
2026-04-26 05:05 41.99423 -125.68298 35905 ft 458 kts 332°
2026-04-26 05:06 42.05088 -125.72153 35906 ft 455 kts 333°
2026-04-26 05:06 42.10729 -125.75994 35905 ft 454 kts 332°
2026-04-26 05:07 42.16373 -125.79840 35904 ft 455 kts 333°
2026-04-26 05:07 42.22013 -125.83705 35906 ft 455 kts 332°
2026-04-26 05:08 42.27666 -125.87575 35909 ft 457 kts 332°
2026-04-26 05:08 42.33328 -125.91463 35906 ft 456 kts 332°
2026-04-26 05:09 42.38978 -125.95351 35905 ft 455 kts 332°
2026-04-26 05:09 42.44627 -125.99250 35904 ft 456 kts 332°
2026-04-26 05:10 42.50244 -126.03123 35894 ft 455 kts 333°
2026-04-26 05:10 42.55910 -126.07048 35890 ft 454 kts 333°
2026-04-26 05:11 42.61540 -126.10954 35890 ft 454 kts 333°
2026-04-26 05:11 42.67114 -126.14827 35891 ft 453 kts 333°
2026-04-26 05:12 42.72537 -126.19173 35902 ft 455 kts 321°
2026-04-26 05:12 42.77250 -126.24963 35897 ft 457 kts 319°
2026-04-26 05:13 42.81913 -126.30809 35899 ft 455 kts 319°
2026-04-26 05:13 42.86572 -126.36651 35895 ft 455 kts 319°
2026-04-26 05:14 42.91232 -126.42509 35898 ft 456 kts 319°
2026-04-26 05:14 42.95883 -126.48369 35897 ft 455 kts 319°
2026-04-26 05:15 43.00533 -126.54240 35899 ft 455 kts 319°
2026-04-26 05:15 43.05180 -126.60124 35897 ft 456 kts 319°
2026-04-26 05:16 43.09833 -126.66016 35897 ft 456 kts 319°
2026-04-26 05:16 43.14482 -126.71931 35899 ft 456 kts 319°
2026-04-26 05:17 43.19121 -126.77838 35894 ft 455 kts 319°
2026-04-26 05:17 43.23753 -126.83752 35895 ft 455 kts 319°
2026-04-26 05:18 43.28383 -126.89677 35896 ft 455 kts 319°
2026-04-26 05:18 43.33013 -126.95609 35899 ft 455 kts 319°
2026-04-26 05:19 43.37635 -127.01549 35894 ft 455 kts 319°
2026-04-26 05:19 43.42260 -127.07502 35896 ft 455 kts 319°
2026-04-26 05:20 43.46869 -127.13456 35895 ft 454 kts 319°
2026-04-26 05:20 43.51476 -127.19414 35895 ft 453 kts 319°
2026-04-26 05:21 43.56080 -127.25378 35895 ft 454 kts 319°
2026-04-26 05:21 43.60682 -127.31357 35898 ft 455 kts 319°
2026-04-26 05:22 43.65272 -127.37334 35896 ft 453 kts 319°
2026-04-26 05:22 43.69831 -127.43278 35897 ft 453 kts 319°
2026-04-26 05:23 43.74396 -127.49254 35896 ft 451 kts 319°
2026-04-26 05:23 43.78959 -127.55233 35895 ft 452 kts 319°
2026-04-26 05:24 43.83512 -127.61212 35897 ft 450 kts 319°
2026-04-26 05:24 43.88065 -127.67204 35897 ft 452 kts 319°
2026-04-26 05:25 43.92609 -127.73199 35898 ft 451 kts 319°
2026-04-26 05:25 43.97145 -127.79196 35897 ft 450 kts 320°
2026-04-26 05:26 44.01676 -127.85197 35900 ft 452 kts 319°
2026-04-26 05:26 44.06225 -127.91247 35899 ft 453 kts 319°
2026-04-26 05:27 44.10766 -127.97285 35900 ft 452 kts 319°
2026-04-26 05:27 44.15307 -128.03349 35902 ft 452 kts 319°
2026-04-26 05:28 44.19846 -128.09415 35901 ft 452 kts 319°
2026-04-26 05:28 44.24374 -128.15487 35898 ft 450 kts 319°
2026-04-26 05:29 44.28884 -128.21538 35900 ft 450 kts 319°
2026-04-26 05:29 44.33402 -128.27620 35901 ft 452 kts 319°
2026-04-26 05:30 44.37925 -128.33729 35901 ft 451 kts 319°
2026-04-26 05:30 44.42446 -128.39835 35903 ft 453 kts 319°
2026-04-26 05:31 44.46980 -128.45981 35908 ft 455 kts 319°
2026-04-26 05:31 44.51520 -128.52153 35910 ft 455 kts 319°
2026-04-26 05:32 44.56063 -128.58331 35910 ft 456 kts 319°
2026-04-26 05:32 44.60608 -128.64540 35911 ft 457 kts 319°
2026-04-26 05:33 44.65162 -128.70765 35915 ft 457 kts 319°
2026-04-26 05:33 44.69688 -128.76967 35915 ft 458 kts 319°
2026-04-26 05:34 44.74247 -128.83237 35916 ft 459 kts 319°
2026-04-26 05:34 44.78811 -128.89522 35920 ft 459 kts 319°
2026-04-26 05:35 44.83402 -128.95859 35913 ft 460 kts 319°
2026-04-26 05:35 44.87958 -129.02162 35912 ft 459 kts 319°
2026-04-26 05:36 44.92513 -129.08486 35912 ft 460 kts 319°
2026-04-26 05:36 44.97081 -129.14832 35914 ft 461 kts 319°
2026-04-26 05:37 45.01616 -129.21160 35914 ft 462 kts 319°
2026-04-26 05:37 45.06194 -129.27547 35921 ft 463 kts 319°
2026-04-26 05:38 45.10767 -129.33956 35918 ft 462 kts 319°
2026-04-26 05:38 45.15333 -129.40361 35918 ft 463 kts 318°
2026-04-26 05:39 45.19157 -129.45745 35922 ft 462 kts 318°
2026-04-26 05:39 45.23719 -129.52169 35919 ft 462 kts 318°
2026-04-26 05:40 45.28256 -129.58582 35920 ft 464 kts 318°
2026-04-26 05:40 45.32833 -129.65068 35923 ft 465 kts 318°
2026-04-26 05:41 45.37417 -129.71575 35937 ft 465 kts 318°
2026-04-26 05:41 45.41994 -129.78093 35935 ft 466 kts 318°
2026-04-26 05:42 45.46576 -129.84630 35941 ft 467 kts 318°
2026-04-26 05:42 45.51166 -129.91193 35941 ft 467 kts 318°
2026-04-26 05:43 45.55740 -129.97752 35949 ft 466 kts 318°
2026-04-26 05:43 45.60323 -130.04344 35949 ft 468 kts 317°
2026-04-26 05:44 45.64914 -130.10958 35950 ft 470 kts 317°
2026-04-26 05:44 45.69517 -130.17606 35953 ft 470 kts 318°
2026-04-26 05:45 45.74106 -130.24256 35953 ft 470 kts 317°
2026-04-26 05:45 45.78691 -130.30909 35952 ft 468 kts 317°
2026-04-26 05:46 45.83264 -130.37565 35953 ft 470 kts 317°
2026-04-26 05:46 45.87845 -130.44245 35955 ft 470 kts 317°
2026-04-26 05:47 45.92420 -130.50941 35955 ft 470 kts 317°
2026-04-26 05:47 45.97009 -130.57670 35956 ft 471 kts 317°
2026-04-26 05:48 46.01586 -130.64395 35952 ft 470 kts 317°
2026-04-26 05:48 46.06169 -130.71154 35957 ft 473 kts 317°
2026-04-26 05:49 46.13031 -130.81296 35958 ft 473 kts 317°
2026-04-26 05:50 46.17633 -130.88120 35962 ft 475 kts 317°
2026-04-26 05:50 46.22242 -130.94978 35964 ft 476 kts 316°
2026-04-26 05:51 46.26851 -131.01848 35964 ft 476 kts 316°
2026-04-26 05:51 46.31462 -131.08735 35965 ft 477 kts 316°
2026-04-26 05:52 46.36077 -131.15651 35966 ft 477 kts 316°
2026-04-26 05:52 46.40691 -131.22585 35967 ft 479 kts 316°
2026-04-26 05:53 46.45305 -131.29532 35965 ft 478 kts 316°
2026-04-26 05:53 46.49910 -131.36488 35965 ft 479 kts 316°
2026-04-26 05:54 46.54525 -131.43480 35970 ft 480 kts 316°
2026-04-26 05:54 46.59149 -131.50505 35966 ft 478 kts 316°
2026-04-26 05:55 46.63756 -131.57503 35964 ft 480 kts 316°
2026-04-26 05:55 46.68359 -131.64539 35961 ft 480 kts 315°
2026-04-26 05:56 46.72958 -131.71575 35957 ft 479 kts 315°
2026-04-26 05:56 46.77563 -131.78630 35969 ft 481 kts 315°
2026-04-26 05:57 46.82164 -131.85709 35971 ft 480 kts 315°
2026-04-26 05:57 46.86732 -131.92756 35974 ft 481 kts 315°
2026-04-26 05:58 46.91359 -131.99914 35977 ft 480 kts 315°
2026-04-26 05:58 46.95953 -132.07033 35974 ft 485 kts 314°
2026-04-26 05:59 47.00588 -132.14145 35978 ft 484 kts 320°
2026-04-26 05:59 47.05548 -132.20825 35967 ft 484 kts 318°
2026-04-26 06:00 47.10482 -132.27552 35969 ft 484 kts 319°
2026-04-26 06:00 47.15421 -132.34256 35965 ft 484 kts 318°
2026-04-26 06:01 47.20354 -132.41005 36151 ft 484 kts 318°
2026-04-26 06:01 47.22814 -132.44366 36430 ft 483 kts 318°
2026-04-26 06:01 47.25278 -132.47730 36629 ft 483 kts 318°
2026-04-26 06:01 47.27720 -132.51079 37111 ft 475 kts 318°
2026-04-26 06:02 47.30125 -132.54390 37384 ft 473 kts 318°
2026-04-26 06:02 47.32533 -132.57702 37531 ft 474 kts 318°
2026-04-26 06:02 47.34942 -132.61012 37686 ft 473 kts 318°
2026-04-26 06:02 47.37347 -132.64327 37813 ft 474 kts 318°
2026-04-26 06:03 47.39757 -132.67655 37961 ft 475 kts 318°
2026-04-26 06:03 47.42165 -132.70985 38154 ft 474 kts 318°
2026-04-26 06:03 47.44573 -132.74312 38261 ft 474 kts 318°
2026-04-26 06:03 47.46982 -132.77652 38413 ft 474 kts 318°
2026-04-26 06:04 47.49384 -132.80989 38527 ft 475 kts 318°
2026-04-26 06:04 47.51793 -132.84335 38655 ft 475 kts 318°
2026-04-26 06:04 47.54199 -132.87686 38784 ft 475 kts 318°
2026-04-26 06:04 47.56609 -132.91041 38910 ft 475 kts 317°
2026-04-26 06:05 47.59014 -132.94396 39028 ft 475 kts 317°
2026-04-26 06:05 47.63834 -133.01129 39239 ft 477 kts 317°
2026-04-26 06:05 47.66245 -133.04508 39408 ft 477 kts 317°
2026-04-26 06:06 47.68653 -133.07890 39525 ft 477 kts 317°
2026-04-26 06:06 47.71068 -133.11277 39627 ft 478 kts 317°
2026-04-26 06:06 47.73487 -133.14676 39756 ft 479 kts 317°
2026-04-26 06:06 47.75902 -133.18079 39913 ft 478 kts 317°
2026-04-26 06:07 47.78317 -133.21483 39989 ft 479 kts 317°
2026-04-26 06:07 47.83168 -133.28337 40028 ft 482 kts 317°
2026-04-26 06:08 47.88015 -133.35204 40028 ft 479 kts 317°
2026-04-26 06:08 47.92837 -133.42054 40037 ft 479 kts 317°
2026-04-26 06:09 47.97660 -133.48923 40041 ft 480 kts 316°
2026-04-26 06:09 48.02496 -133.55830 40040 ft 481 kts 316°
2026-04-26 06:10 48.07342 -133.62769 40038 ft 483 kts 316°
2026-04-26 06:10 48.12180 -133.69718 40036 ft 482 kts 316°
2026-04-26 06:11 48.16986 -133.76638 40040 ft 483 kts 316°
2026-04-26 06:11 48.21825 -133.83627 40049 ft 483 kts 316°
2026-04-26 06:12 48.26666 -133.90637 40043 ft 484 kts 316°
2026-04-26 06:12 48.31505 -133.97662 40053 ft 484 kts 316°
2026-04-26 06:13 48.36345 -134.04709 40056 ft 485 kts 316°
2026-04-26 06:13 48.41169 -134.11754 40050 ft 482 kts 315°
2026-04-26 06:14 48.45972 -134.18786 40047 ft 481 kts 315°
2026-04-26 06:14 48.50770 -134.25832 40047 ft 482 kts 315°
2026-04-26 06:15 48.55581 -134.32915 40053 ft 484 kts 315°
2026-04-26 06:15 48.60407 -134.40041 40061 ft 486 kts 315°
2026-04-26 06:16 48.65235 -134.47190 40058 ft 485 kts 315°
2026-04-26 06:16 48.70055 -134.54347 40061 ft 486 kts 315°
2026-04-26 06:17 48.74877 -134.61528 40065 ft 486 kts 315°
2026-04-26 06:17 48.79703 -134.68736 40065 ft 488 kts 315°
2026-04-26 06:18 48.84534 -134.75971 40060 ft 487 kts 315°
2026-04-26 06:18 48.89348 -134.83202 40050 ft 487 kts 315°
2026-04-26 06:19 48.94162 -134.90452 40064 ft 487 kts 314°
2026-04-26 06:19 48.98976 -134.97724 40056 ft 488 kts 314°
2026-04-26 06:20 49.03799 -135.05030 40057 ft 489 kts 314°
2026-04-26 06:20 49.08621 -135.12357 40062 ft 489 kts 314°
2026-04-26 06:21 49.13428 -135.19682 40065 ft 488 kts 314°
2026-04-26 06:21 49.18228 -135.27018 40059 ft 488 kts 314°
2026-04-26 06:22 49.22998 -135.34329 40064 ft 489 kts 314°
2026-04-26 06:22 49.27802 -135.41714 40059 ft 490 kts 314°
2026-04-26 06:23 49.32614 -135.49131 40071 ft 491 kts 314°
2026-04-26 06:23 49.37418 -135.56558 40055 ft 490 kts 313°
2026-04-26 06:24 49.42215 -135.64000 40064 ft 490 kts 313°
2026-04-26 06:24 49.47017 -135.71467 40065 ft 492 kts 313°
2026-04-26 06:25 49.51820 -135.78960 40064 ft 492 kts 313°
2026-04-26 06:25 49.56617 -135.86465 40065 ft 491 kts 313°
2026-04-26 06:26 49.60594 -135.92704 40058 ft 491 kts 313°
2026-04-26 06:26 49.65406 -136.00275 40061 ft 491 kts 313°
2026-04-26 06:27 49.70151 -136.07763 40063 ft 492 kts 313°
2026-04-26 06:27 49.74934 -136.15332 40067 ft 493 kts 313°
2026-04-26 06:28 49.79721 -136.22931 40066 ft 493 kts 313°
2026-04-26 06:28 49.84508 -136.30553 40065 ft 493 kts 313°
2026-04-26 06:29 49.89275 -136.38165 40065 ft 491 kts 313°
2026-04-26 06:29 49.94019 -136.45765 40064 ft 489 kts 313°
2026-04-26 06:30 49.98745 -136.53356 40057 ft 489 kts 312°
2026-04-26 06:30 50.03469 -136.60971 40080 ft 490 kts 312°
2026-04-26 06:31 50.08205 -136.68626 40080 ft 492 kts 312°
2026-04-26 06:31 50.12948 -136.76315 40081 ft 492 kts 312°
2026-04-26 06:32 50.17684 -136.84017 40084 ft 492 kts 312°
2026-04-26 06:32 50.22408 -136.91722 40084 ft 491 kts 312°
2026-04-26 06:33 50.27122 -136.99436 40082 ft 490 kts 312°
2026-04-26 06:33 50.31823 -137.07153 40078 ft 490 kts 311°
2026-04-26 06:34 50.36492 -137.14839 40080 ft 491 kts 311°
2026-04-26 06:34 50.41192 -137.22600 40063 ft 491 kts 311°
2026-04-26 06:35 50.45895 -137.30390 40070 ft 492 kts 311°
2026-04-26 06:35 50.50597 -137.38203 40066 ft 492 kts 311°
2026-04-26 06:36 50.55303 -137.46047 40069 ft 492 kts 311°
2026-04-26 06:36 50.59989 -137.53881 40066 ft 490 kts 311°
2026-04-26 06:37 50.64648 -137.61696 40061 ft 489 kts 311°
2026-04-26 06:37 50.69297 -137.69518 40052 ft 489 kts 311°
2026-04-26 06:38 50.73951 -137.77372 40063 ft 491 kts 311°
2026-04-26 06:38 50.78615 -137.85267 40063 ft 492 kts 311°
2026-04-26 06:39 50.83282 -137.93193 40076 ft 493 kts 311°
2026-04-26 06:39 50.87941 -138.01129 40064 ft 491 kts 311°
2026-04-26 06:40 50.92580 -138.09058 40059 ft 490 kts 311°
2026-04-26 06:40 50.97176 -138.16936 40077 ft 489 kts 311°
2026-04-26 06:41 51.01799 -138.24888 40095 ft 491 kts 310°
2026-04-26 06:41 51.06443 -138.32899 40102 ft 493 kts 310°
2026-04-26 06:42 51.11085 -138.40932 40100 ft 492 kts 310°
2026-04-26 06:42 51.15705 -138.48955 40097 ft 491 kts 310°
2026-04-26 06:43 51.20311 -138.56977 40093 ft 490 kts 310°
2026-04-26 06:43 51.24900 -138.64997 40095 ft 489 kts 310°
2026-04-26 06:44 51.29492 -138.73046 40097 ft 491 kts 310°
2026-04-26 06:44 51.34090 -138.81132 40101 ft 492 kts 310°
2026-04-26 06:45 51.38693 -138.89252 40108 ft 493 kts 310°
2026-04-26 06:45 51.43301 -138.97410 40111 ft 494 kts 310°
2026-04-26 06:46 51.47898 -139.05571 40107 ft 492 kts 310°
2026-04-26 06:46 51.52470 -139.13717 40102 ft 490 kts 310°
2026-04-26 06:47 51.57024 -139.21857 40103 ft 489 kts 310°
2026-04-26 06:47 51.61575 -139.30017 40110 ft 491 kts 310°
2026-04-26 06:48 51.66137 -139.38224 40115 ft 493 kts 310°
2026-04-26 06:48 51.70709 -139.46475 40121 ft 493 kts 309°
2026-04-26 06:49 51.75268 -139.54730 40117 ft 492 kts 309°
2026-04-26 06:49 51.79813 -139.62988 40115 ft 492 kts 309°
2026-04-26 06:50 51.84349 -139.71260 40113 ft 492 kts 309°
2026-04-26 06:50 51.88876 -139.79533 40115 ft 491 kts 309°
2026-04-26 06:51 51.93387 -139.87821 40115 ft 491 kts 309°
2026-04-26 06:51 52.00158 -140.00313 40123 ft 492 kts 305°
2026-04-26 06:52 52.04346 -140.08994 40134 ft 493 kts 306°
2026-04-26 06:52 52.08577 -140.17738 40124 ft 491 kts 305°
2026-04-26 06:53 52.12769 -140.26488 40117 ft 490 kts 306°
2026-04-26 06:53 52.16964 -140.35226 40116 ft 489 kts 306°
2026-04-26 06:54 52.21141 -140.43989 40124 ft 490 kts 306°
2026-04-26 06:54 52.25324 -140.52780 40136 ft 490 kts 305°
2026-04-26 06:55 52.29500 -140.61583 40131 ft 491 kts 305°
2026-04-26 06:55 52.33670 -140.70426 40132 ft 490 kts 305°
2026-04-26 06:56 52.37821 -140.79236 40129 ft 488 kts 305°
2026-04-26 06:56 52.41955 -140.88046 40134 ft 487 kts 305°
2026-04-26 06:57 52.46074 -140.96865 40125 ft 487 kts 305°
2026-04-26 06:57 52.50193 -141.05702 40133 ft 487 kts 305°
2026-04-26 06:58 52.54300 -141.14554 40131 ft 486 kts 305°
2026-04-26 06:58 52.58393 -141.23401 40131 ft 487 kts 305°
2026-04-26 06:59 52.62491 -141.32284 40132 ft 487 kts 305°
2026-04-26 06:59 52.66578 -141.41184 40135 ft 487 kts 305°
2026-04-26 07:00 52.70659 -141.50095 40135 ft 487 kts 305°
2026-04-26 07:00 52.74701 -141.58959 40135 ft 486 kts 305°
2026-04-26 07:01 52.78762 -141.67889 40134 ft 486 kts 304°
2026-04-26 07:01 52.82812 -141.76831 40133 ft 486 kts 304°
2026-04-26 07:02 52.86854 -141.85784 40131 ft 485 kts 304°
2026-04-26 07:02 52.90884 -141.94743 40130 ft 485 kts 304°
2026-04-26 07:03 52.94905 -142.03713 40146 ft 485 kts 304°
2026-04-26 07:03 52.98916 -142.12692 40147 ft 484 kts 304°
2026-04-26 07:04 53.02908 -142.21662 40145 ft 482 kts 304°
2026-04-26 07:04 53.06891 -142.30644 40145 ft 483 kts 304°
2026-04-26 07:05 53.10880 -142.39670 40149 ft 485 kts 304°
2026-04-26 07:05 53.14874 -142.48742 40146 ft 487 kts 304°
2026-04-26 07:06 53.18864 -142.57834 40149 ft 485 kts 304°
2026-04-26 07:06 53.22834 -142.66915 40146 ft 484 kts 304°
2026-04-26 07:07 53.26785 -142.75983 40142 ft 482 kts 304°
2026-04-26 07:07 53.30718 -142.85045 40140 ft 482 kts 304°
2026-04-26 07:08 53.34652 -142.94141 40141 ft 483 kts 304°
2026-04-26 07:08 53.38583 -143.03261 40144 ft 483 kts 303°
2026-04-26 07:09 53.42502 -143.12388 40146 ft 482 kts 303°
2026-04-26 07:09 53.46404 -143.21509 40144 ft 480 kts 303°
2026-04-26 07:11 53.56074 -143.44254 40143 ft 481 kts 303°
2026-04-26 07:11 53.59955 -143.53440 40154 ft 482 kts 303°
2026-04-26 07:12 53.63833 -143.62652 40159 ft 482 kts 303°
2026-04-26 07:12 53.67694 -143.71858 40158 ft 480 kts 303°
2026-04-26 07:13 53.71537 -143.81055 40153 ft 479 kts 303°
2026-04-26 07:13 53.75364 -143.90249 40140 ft 479 kts 303°
2026-04-26 07:14 53.78568 -143.97971 40141 ft 479 kts 303°
2026-04-26 07:14 53.82390 -144.07212 40143 ft 479 kts 303°
2026-04-26 07:15 53.86183 -144.16417 40145 ft 479 kts 303°
2026-04-26 07:15 53.89991 -144.25696 40146 ft 480 kts 303°
2026-04-26 07:16 53.93791 -144.34986 40153 ft 479 kts 302°
2026-04-26 07:16 53.97584 -144.44295 40162 ft 479 kts 302°
2026-04-26 07:17 54.01362 -144.53602 40161 ft 478 kts 302°
2026-04-26 07:17 54.05135 -144.62930 40163 ft 480 kts 302°
2026-04-26 07:18 54.08913 -144.72305 40169 ft 480 kts 302°
2026-04-26 07:18 54.12682 -144.81695 40172 ft 480 kts 302°
2026-04-26 07:19 54.16444 -144.91102 40170 ft 480 kts 302°
2026-04-26 07:19 54.20191 -145.00506 40174 ft 479 kts 302°
2026-04-26 07:20 54.23923 -145.09910 40171 ft 478 kts 302°
2026-04-26 07:20 54.27640 -145.19311 40167 ft 476 kts 302°
2026-04-26 07:21 54.31338 -145.28697 40161 ft 475 kts 302°
2026-04-26 07:21 54.35028 -145.38099 40162 ft 476 kts 302°
2026-04-26 07:22 54.38720 -145.47542 40171 ft 477 kts 302°
2026-04-26 07:22 54.42411 -145.57018 40175 ft 477 kts 302°
2026-04-26 07:23 54.46081 -145.66478 40180 ft 475 kts 302°
2026-04-26 07:23 54.49737 -145.75936 40177 ft 474 kts 302°
2026-04-26 07:24 54.53376 -145.85388 40179 ft 474 kts 302°
2026-04-26 07:24 54.57020 -145.94886 40181 ft 476 kts 302°
2026-04-26 07:25 54.60666 -146.04426 40191 ft 476 kts 301°
2026-04-26 07:25 54.64289 -146.13943 40189 ft 473 kts 301°
2026-04-26 07:26 54.67870 -146.23387 40187 ft 473 kts 301°
2026-04-26 07:26 54.71463 -146.32900 40182 ft 472 kts 301°
2026-04-26 07:27 54.75045 -146.42417 40178 ft 471 kts 301°
2026-04-26 07:27 54.78612 -146.51934 40182 ft 471 kts 301°
2026-04-26 07:28 54.82173 -146.61470 40179 ft 471 kts 301°
2026-04-26 07:28 54.85728 -146.71028 40185 ft 471 kts 301°
2026-04-26 07:29 54.89272 -146.80590 40183 ft 471 kts 301°
2026-04-26 07:29 54.92804 -146.90160 40180 ft 470 kts 301°
2026-04-26 07:30 54.96325 -146.99736 40178 ft 469 kts 301°
2026-04-26 07:30 54.99836 -147.09323 40185 ft 470 kts 301°
2026-04-26 07:31 55.03350 -147.18956 40190 ft 471 kts 300°
2026-04-26 07:31 55.06857 -147.28606 40190 ft 471 kts 300°
2026-04-26 07:32 55.10352 -147.38262 40193 ft 470 kts 300°
2026-04-26 07:32 55.13832 -147.47913 40193 ft 469 kts 300°
2026-04-26 07:33 55.17291 -147.57547 40192 ft 467 kts 300°
2026-04-26 07:33 55.20743 -147.67196 40188 ft 468 kts 300°
2026-04-26 07:34 55.24199 -147.76896 40190 ft 470 kts 300°
2026-04-26 07:34 55.27658 -147.86642 40130 ft 471 kts 300°
2026-04-26 07:35 55.31101 -147.96380 40133 ft 468 kts 300°
2026-04-26 07:35 55.34519 -148.06092 40130 ft 467 kts 300°
2026-04-26 07:36 55.37919 -148.15787 40110 ft 465 kts 300°
2026-04-26 07:36 55.41311 -148.25499 40110 ft 467 kts 300°
2026-04-26 07:37 55.44708 -148.35263 40079 ft 468 kts 300°
2026-04-26 07:37 55.48095 -148.45038 40080 ft 467 kts 299°
2026-04-26 07:38 55.51467 -148.54808 40079 ft 466 kts 299°
2026-04-26 07:38 55.54824 -148.64576 40067 ft 465 kts 299°
2026-04-26 07:39 55.58166 -148.74337 40076 ft 464 kts 299°
2026-04-26 07:39 55.61502 -148.84122 40054 ft 465 kts 299°
2026-04-26 07:40 55.64817 -148.93881 40076 ft 466 kts 299°
2026-04-26 07:40 55.68143 -149.03714 40064 ft 465 kts 299°
2026-04-26 07:41 55.71449 -149.13530 40064 ft 463 kts 299°
2026-04-26 07:41 55.74741 -149.23343 40057 ft 463 kts 299°
2026-04-26 07:42 55.78030 -149.33186 40055 ft 463 kts 299°
2026-04-26 07:42 55.81308 -149.43037 40073 ft 462 kts 298°
2026-04-26 07:43 55.84573 -149.52888 40068 ft 462 kts 298°
2026-04-26 07:43 55.87833 -149.62768 40068 ft 464 kts 298°
2026-04-26 07:44 55.91100 -149.72706 40077 ft 465 kts 298°
2026-04-26 07:44 55.94346 -149.82620 40084 ft 466 kts 298°
2026-04-26 07:45 55.97608 -149.92627 40082 ft 466 kts 298°
2026-04-26 07:45 56.00319 -150.03027 40092 ft 461 kts 283°
2026-04-26 07:46 56.01725 -150.14213 40085 ft 462 kts 281°
2026-04-26 07:46 56.03061 -150.25457 40059 ft 463 kts 281°
2026-04-26 07:47 56.04401 -150.36698 40059 ft 462 kts 281°
2026-04-26 07:47 56.05721 -150.47937 40065 ft 461 kts 281°
2026-04-26 07:48 56.07031 -150.59154 40068 ft 460 kts 281°
2026-04-26 07:48 56.08328 -150.70367 40069 ft 460 kts 281°
2026-04-26 07:49 56.09615 -150.81577 40059 ft 459 kts 281°
2026-04-26 07:49 56.10889 -150.92779 40059 ft 458 kts 281°
2026-04-26 07:50 56.12782 -151.09596 40066 ft 460 kts 280°
2026-04-26 07:50 56.14033 -151.20838 40066 ft 461 kts 280°
2026-04-26 07:51 56.15277 -151.32110 40068 ft 460 kts 280°
2026-04-26 07:51 56.16504 -151.43330 40058 ft 457 kts 280°
2026-04-26 07:52 56.17714 -151.54491 40062 ft 455 kts 280°
2026-04-26 07:52 56.18914 -151.65665 40057 ft 456 kts 280°
2026-04-26 07:53 56.20102 -151.76847 40078 ft 455 kts 280°
2026-04-26 07:53 56.21285 -151.88016 40081 ft 455 kts 280°
2026-04-26 07:54 56.22447 -151.99199 40082 ft 455 kts 280°
2026-04-26 07:54 56.23611 -152.10363 40060 ft 454 kts 279°
2026-04-26 07:55 56.24747 -152.21516 40056 ft 454 kts 280°
2026-04-26 07:55 56.25891 -152.32699 40074 ft 456 kts 279°
2026-04-26 07:56 56.27010 -152.43865 40076 ft 456 kts 279°
2026-04-26 07:56 56.28133 -152.55102 40087 ft 456 kts 279°
2026-04-26 07:57 56.29240 -152.66330 40084 ft 455 kts 279°
2026-04-26 07:57 56.30338 -152.77556 40083 ft 455 kts 279°
2026-04-26 07:58 56.31422 -152.88762 40081 ft 453 kts 279°
2026-04-26 07:58 56.32496 -152.99948 40087 ft 453 kts 279°
2026-04-26 07:59 56.33560 -153.11145 40090 ft 453 kts 279°
2026-04-26 07:59 56.34430 -153.20419 40088 ft 451 kts 279°
2026-04-26 08:00 56.35468 -153.31577 40100 ft 451 kts 278°
2026-04-26 08:00 56.36502 -153.42710 40101 ft 450 kts 278°
2026-04-26 08:01 56.37509 -153.53843 40101 ft 449 kts 278°
2026-04-26 08:01 56.38519 -153.64969 40105 ft 450 kts 278°
2026-04-26 08:02 56.39511 -153.76074 40100 ft 447 kts 278°
2026-04-26 08:02 56.40493 -153.87199 40106 ft 447 kts 278°
2026-04-26 08:03 56.41469 -153.98296 40107 ft 447 kts 278°
2026-04-26 08:03 56.42426 -154.09401 40107 ft 446 kts 278°
2026-04-26 08:04 56.43380 -154.20495 40107 ft 446 kts 278°
2026-04-26 08:04 56.44312 -154.31579 40106 ft 446 kts 278°
2026-04-26 08:05 56.45248 -154.42691 40107 ft 447 kts 278°
2026-04-26 08:05 56.46169 -154.53827 40107 ft 448 kts 278°
2026-04-26 08:06 56.47083 -154.64985 40097 ft 448 kts 277°
2026-04-26 08:06 56.47984 -154.76144 40099 ft 449 kts 277°
2026-04-26 08:07 56.48876 -154.87270 40100 ft 450 kts 277°
2026-04-26 08:07 56.49760 -154.98457 40101 ft 447 kts 277°
2026-04-26 08:08 56.50635 -155.09642 40085 ft 449 kts 277°
2026-04-26 08:08 56.51496 -155.20810 40083 ft 448 kts 277°
2026-04-26 08:09 56.52349 -155.31964 40061 ft 446 kts 277°
2026-04-26 08:09 56.53193 -155.43124 40056 ft 449 kts 277°
2026-04-26 08:10 56.54018 -155.54295 40062 ft 446 kts 277°
2026-04-26 08:10 56.54842 -155.65412 40049 ft 445 kts 277°
2026-04-26 08:11 56.55646 -155.76539 40042 ft 445 kts 277°
2026-04-26 08:11 56.56447 -155.87678 40035 ft 446 kts 277°
2026-04-26 08:12 56.57232 -155.98814 40033 ft 445 kts 276°
2026-04-26 08:12 56.58006 -156.09953 40025 ft 444 kts 276°
2026-04-26 08:13 56.58776 -156.21049 40013 ft 443 kts 276°
2026-04-26 08:13 56.59530 -156.32144 40006 ft 442 kts 276°
2026-04-26 08:14 56.60273 -156.43235 39994 ft 444 kts 276°
2026-04-26 08:14 56.61013 -156.54382 40000 ft 445 kts 276°
2026-04-26 08:15 56.61739 -156.65548 39987 ft 445 kts 276°
2026-04-26 08:15 56.62459 -156.76685 39949 ft 444 kts 276°
2026-04-26 08:16 56.63152 -156.87743 39945 ft 443 kts 276°
2026-04-26 08:16 56.63849 -156.98863 39943 ft 444 kts 275°
2026-04-26 08:17 56.64535 -157.10018 39948 ft 444 kts 275°
2026-04-26 08:17 56.65213 -157.21152 39947 ft 442 kts 275°
2026-04-26 08:18 56.65873 -157.32250 39946 ft 442 kts 275°
2026-04-26 08:18 56.66526 -157.43327 39947 ft 440 kts 275°
2026-04-26 08:19 56.67169 -157.54403 39947 ft 441 kts 275°
2026-04-26 08:19 56.67800 -157.65488 39902 ft 441 kts 274°
2026-04-26 08:20 56.68423 -157.76545 39903 ft 439 kts 274°
2026-04-26 08:20 56.69027 -157.87593 39906 ft 440 kts 274°
2026-04-26 08:21 56.69640 -157.98772 39906 ft 441 kts 274°
2026-04-26 08:21 56.70222 -158.09779 39892 ft 439 kts 274°
2026-04-26 08:22 56.70807 -158.20803 39889 ft 437 kts 274°
2026-04-26 08:22 56.71372 -158.31850 39887 ft 439 kts 274°
2026-04-26 08:23 56.71936 -158.42925 39874 ft 439 kts 274°
2026-04-26 08:23 56.72487 -158.53994 39873 ft 439 kts 274°
2026-04-26 08:24 56.73030 -158.65086 39867 ft 441 kts 273°
2026-04-26 08:24 56.73562 -158.76197 39867 ft 440 kts 273°
2026-04-26 08:25 56.74082 -158.87279 39864 ft 439 kts 273°
2026-04-26 08:25 56.74595 -158.98356 39861 ft 439 kts 273°
2026-04-26 08:26 56.75098 -159.09422 39863 ft 438 kts 273°
2026-04-26 08:26 56.75584 -159.20474 39867 ft 438 kts 273°
2026-04-26 08:27 56.76068 -159.31543 39857 ft 438 kts 272°
2026-04-26 08:27 56.76538 -159.42609 39858 ft 438 kts 273°
2026-04-26 08:28 56.77000 -159.53678 39863 ft 438 kts 272°
2026-04-26 08:28 56.77451 -159.64739 39861 ft 437 kts 272°
2026-04-26 08:29 56.77892 -159.75762 39860 ft 436 kts 272°
2026-04-26 08:29 56.78320 -159.86773 39854 ft 437 kts 272°
2026-04-26 08:30 56.78745 -159.97823 39851 ft 437 kts 272°
2026-04-26 08:30 56.79149 -160.08798 39853 ft 437 kts 272°
2026-04-26 08:31 56.79553 -160.19866 39849 ft 437 kts 272°
2026-04-26 08:31 56.79947 -160.30928 39834 ft 437 kts 271°
2026-04-26 08:32 56.80228 -160.41998 39840 ft 436 kts 270°
2026-04-26 08:32 56.80504 -160.53081 39810 ft 437 kts 271°
2026-04-26 08:33 56.80780 -160.64186 39772 ft 438 kts 270°
2026-04-26 08:33 56.81036 -160.75283 39773 ft 438 kts 270°
2026-04-26 08:34 56.81290 -160.86405 39776 ft 439 kts 270°
2026-04-26 08:34 56.81529 -160.97527 39760 ft 439 kts 270°
2026-04-26 08:35 56.81761 -161.08635 39762 ft 438 kts 270°
2026-04-26 08:35 56.81980 -161.19754 39763 ft 438 kts 270°
2026-04-26 08:36 56.82192 -161.30880 39744 ft 438 kts 270°
2026-04-26 08:36 56.82392 -161.41927 39744 ft 438 kts 270°
2026-04-26 08:37 56.82582 -161.53012 39742 ft 437 kts 270°
2026-04-26 08:37 56.82762 -161.64135 39745 ft 438 kts 270°
2026-04-26 08:38 56.82933 -161.75238 39746 ft 437 kts 270°
2026-04-26 08:38 56.83095 -161.86333 39736 ft 437 kts 269°
2026-04-26 08:39 56.83245 -161.97431 39736 ft 437 kts 269°
2026-04-26 08:39 56.83389 -162.08553 39740 ft 439 kts 269°
2026-04-26 08:40 56.83519 -162.19706 39726 ft 439 kts 269°
2026-04-26 08:40 56.83644 -162.30859 39691 ft 439 kts 269°
2026-04-26 08:41 56.83751 -162.42003 39693 ft 439 kts 269°
2026-04-26 08:41 56.83859 -162.53142 39689 ft 438 kts 269°
2026-04-26 08:42 56.83949 -162.64291 39683 ft 439 kts 269°
2026-04-26 08:42 56.84032 -162.75471 39688 ft 440 kts 269°
2026-04-26 08:43 56.84105 -162.86685 39614 ft 441 kts 269°
2026-04-26 08:43 56.84167 -162.97787 39612 ft 440 kts 268°
2026-04-26 08:44 56.84219 -163.08951 39611 ft 439 kts 268°
2026-04-26 08:44 56.84262 -163.20100 39608 ft 438 kts 268°
2026-04-26 08:45 56.84295 -163.31258 39608 ft 440 kts 268°
2026-04-26 08:45 56.84318 -163.42420 39602 ft 439 kts 268°
2026-04-26 08:46 56.84331 -163.53559 39606 ft 438 kts 268°
2026-04-26 08:46 56.84334 -163.64689 39610 ft 438 kts 268°
2026-04-26 08:47 56.84327 -163.75825 39609 ft 438 kts 268°
2026-04-26 08:47 56.84311 -163.86913 39605 ft 437 kts 267°
2026-04-26 08:48 56.84286 -163.96178 39611 ft 440 kts 267°
2026-04-26 08:48 56.84255 -164.07369 39595 ft 442 kts 267°
2026-04-26 08:49 56.84208 -164.18606 39600 ft 442 kts 267°
2026-04-26 08:49 56.84151 -164.29813 39600 ft 442 kts 266°
2026-04-26 08:50 56.84089 -164.41031 39597 ft 442 kts 267°
2026-04-26 08:50 56.84011 -164.52252 39599 ft 442 kts 266°
2026-04-26 08:51 56.83882 -164.69115 39598 ft 443 kts 266°
2026-04-26 08:52 56.83777 -164.80374 39562 ft 442 kts 266°
2026-04-26 08:52 56.83668 -164.91578 39552 ft 441 kts 266°
2026-04-26 08:53 56.83547 -165.02781 39553 ft 441 kts 266°
2026-04-26 08:53 56.83415 -165.14028 39561 ft 444 kts 266°
2026-04-26 08:54 56.83275 -165.25270 39561 ft 442 kts 266°
2026-04-26 08:54 56.83122 -165.36526 39556 ft 444 kts 266°
2026-04-26 08:55 56.82960 -165.47756 39552 ft 442 kts 265°
2026-04-26 08:55 56.82791 -165.58965 39552 ft 442 kts 265°
2026-04-26 08:56 56.82608 -165.70181 39558 ft 443 kts 265°
2026-04-26 08:56 56.82416 -165.81425 39562 ft 444 kts 265°
2026-04-26 08:57 56.82214 -165.92687 39558 ft 444 kts 265°
2026-04-26 08:57 56.82002 -166.03954 39561 ft 444 kts 265°
2026-04-26 08:58 56.81780 -166.15183 39544 ft 443 kts 264°
2026-04-26 08:58 56.81548 -166.26442 39544 ft 445 kts 265°
2026-04-26 08:59 56.81301 -166.37714 39473 ft 445 kts 264°
2026-04-26 08:59 56.81050 -166.48921 39347 ft 445 kts 264°
2026-04-26 09:00 56.80789 -166.60154 39301 ft 443 kts 264°
2026-04-26 09:00 56.80516 -166.71403 39197 ft 443 kts 264°
2026-04-26 09:01 56.80236 -166.82597 39185 ft 441 kts 264°
2026-04-26 09:01 56.79941 -166.93775 39182 ft 442 kts 264°
2026-04-26 09:02 56.79641 -167.04993 39179 ft 443 kts 264°
2026-04-26 09:02 56.79327 -167.16208 39180 ft 443 kts 263°
2026-04-26 09:03 56.79005 -167.27404 39170 ft 441 kts 263°
2026-04-26 09:03 56.78673 -167.38596 39172 ft 443 kts 263°
2026-04-26 09:04 56.78331 -167.49823 39164 ft 444 kts 263°
2026-04-26 09:04 56.77975 -167.61075 39167 ft 444 kts 263°
2026-04-26 09:05 56.77611 -167.72317 39157 ft 443 kts 263°
2026-04-26 09:05 56.77239 -167.83528 39152 ft 443 kts 263°
2026-04-26 09:06 56.76855 -167.94720 39141 ft 442 kts 262°
2026-04-26 09:06 56.76461 -168.05841 39142 ft 443 kts 262°
2026-04-26 09:07 56.76062 -168.17080 39129 ft 446 kts 262°
2026-04-26 09:07 56.75643 -168.28360 39133 ft 446 kts 262°
2026-04-26 09:08 56.75216 -168.39704 39135 ft 446 kts 262°
2026-04-26 09:08 56.74777 -168.50919 39123 ft 447 kts 261°
2026-04-26 09:09 56.74334 -168.62165 39121 ft 445 kts 262°
2026-04-26 09:09 56.73878 -168.73432 39121 ft 447 kts 262°
2026-04-26 09:10 56.73409 -168.84716 39115 ft 446 kts 261°
2026-04-26 09:10 56.72931 -168.95978 39115 ft 447 kts 261°
2026-04-26 09:11 56.72442 -169.07297 39118 ft 448 kts 261°
2026-04-26 09:11 56.71943 -169.18587 39114 ft 446 kts 261°
2026-04-26 09:12 56.71432 -169.29840 39114 ft 446 kts 261°
2026-04-26 09:12 56.70918 -169.41111 39106 ft 448 kts 261°
2026-04-26 09:13 56.70388 -169.52401 39101 ft 448 kts 260°
2026-04-26 09:13 56.69834 -169.63837 39033 ft 459 kts 259°
2026-04-26 09:14 56.69267 -169.75525 39037 ft 469 kts 259°
2026-04-26 09:14 56.68669 -169.87473 39050 ft 478 kts 259°
2026-04-26 09:15 56.68056 -169.99636 39063 ft 487 kts 259°
2026-04-26 09:15 56.67413 -170.12002 39058 ft 494 kts 259°
2026-04-26 09:16 56.66757 -170.24419 39063 ft 493 kts 259°
2026-04-26 09:16 56.66098 -170.36805 39062 ft 490 kts 259°
2026-04-26 09:17 56.65416 -170.49143 39058 ft 492 kts 259°
2026-04-26 09:17 56.64728 -170.61516 39062 ft 493 kts 258°
2026-04-26 09:18 56.64029 -170.73815 39065 ft 493 kts 259°
2026-04-26 09:18 56.63309 -170.86232 39066 ft 493 kts 259°
2026-04-26 09:19 56.62585 -170.98604 39065 ft 492 kts 259°
2026-04-26 09:19 56.61836 -171.10976 39067 ft 494 kts 258°
2026-04-26 09:20 56.61089 -171.23377 39067 ft 494 kts 259°
2026-04-26 09:20 56.60318 -171.35797 39069 ft 496 kts 258°
2026-04-26 09:21 56.59534 -171.48234 39073 ft 497 kts 258°
2026-04-26 09:21 56.58743 -171.60658 39085 ft 494 kts 258°
2026-04-26 09:22 56.57937 -171.73037 39082 ft 494 kts 258°
2026-04-26 09:22 56.57118 -171.85443 39085 ft 495 kts 258°
2026-04-26 09:23 56.56286 -171.97856 39086 ft 497 kts 258°
2026-04-26 09:23 56.55439 -172.10301 39086 ft 498 kts 258°
2026-04-26 09:24 56.54582 -172.22744 39083 ft 497 kts 258°
2026-04-26 09:24 56.53707 -172.35159 39076 ft 496 kts 258°
2026-04-26 09:25 56.52828 -172.47557 39075 ft 497 kts 258°
2026-04-26 09:25 56.51928 -172.60019 39082 ft 498 kts 258°
2026-04-26 09:26 56.51022 -172.72431 39072 ft 497 kts 258°
2026-04-26 09:26 56.50105 -172.84743 39069 ft 496 kts 258°
2026-04-26 09:27 56.49171 -172.97133 39069 ft 498 kts 258°
2026-04-26 09:27 56.48229 -173.09552 39070 ft 498 kts 258°
2026-04-26 09:28 56.47268 -173.21952 39070 ft 499 kts 258°
2026-04-26 09:28 56.46293 -173.34388 39059 ft 500 kts 258°
2026-04-26 09:29 56.45306 -173.46838 39059 ft 500 kts 258°
2026-04-26 09:29 56.44303 -173.59286 39048 ft 501 kts 258°
2026-04-26 09:30 56.43015 -173.71597 39047 ft 499 kts 255°
2026-04-26 09:30 56.41649 -173.83902 39048 ft 500 kts 255°
2026-04-26 09:31 56.40237 -173.96188 39049 ft 499 kts 255°
2026-04-26 09:31 56.38835 -174.08430 39046 ft 498 kts 255°
2026-04-26 09:32 56.37411 -174.20683 39038 ft 498 kts 254°
2026-04-26 09:32 56.35976 -174.32935 39004 ft 501 kts 255°
2026-04-26 09:33 56.34525 -174.45210 38910 ft 500 kts 254°
2026-04-26 09:33 56.33064 -174.57448 38906 ft 499 kts 254°
2026-04-26 09:34 56.31593 -174.69677 38894 ft 499 kts 254°
2026-04-26 09:34 56.30357 -174.79854 38895 ft 501 kts 254°
2026-04-26 09:35 56.28856 -174.92126 38885 ft 503 kts 254°
2026-04-26 09:35 56.27338 -175.04416 38887 ft 503 kts 254°
2026-04-26 09:36 56.25807 -175.16709 38887 ft 504 kts 254°
2026-04-26 09:36 56.24263 -175.29011 38878 ft 504 kts 254°
2026-04-26 09:37 56.22702 -175.41305 38879 ft 503 kts 254°
2026-04-26 09:37 56.21137 -175.53573 38864 ft 504 kts 254°
2026-04-26 09:38 56.19554 -175.65843 38863 ft 504 kts 253°
2026-04-26 09:38 56.17956 -175.78117 38864 ft 505 kts 253°
2026-04-26 09:39 56.16352 -175.90403 38859 ft 506 kts 253°
2026-04-26 09:39 56.14722 -176.02683 38865 ft 506 kts 253°
2026-04-26 09:40 56.13090 -176.14958 38868 ft 505 kts 253°
2026-04-26 09:40 56.11440 -176.27201 38872 ft 505 kts 253°
2026-04-26 09:41 56.09786 -176.39428 38865 ft 505 kts 253°
2026-04-26 09:41 56.08128 -176.51552 38865 ft 505 kts 253°
2026-04-26 09:42 56.06449 -176.63749 38864 ft 505 kts 253°
2026-04-26 09:42 56.04758 -176.75929 38915 ft 504 kts 253°
2026-04-26 09:43 56.03052 -176.88115 38918 ft 505 kts 253°
2026-04-26 09:43 56.01337 -177.00279 38916 ft 504 kts 253°
2026-04-26 09:44 55.99614 -177.12412 38919 ft 503 kts 253°
2026-04-26 09:44 55.97879 -177.24504 38910 ft 501 kts 253°
2026-04-26 09:45 55.96145 -177.36521 38904 ft 500 kts 253°
2026-04-26 09:45 55.94393 -177.48551 38878 ft 501 kts 253°
2026-04-26 09:46 55.92634 -177.60577 38876 ft 501 kts 253°
2026-04-26 09:46 55.90857 -177.72575 38876 ft 501 kts 253°
2026-04-26 09:47 55.89072 -177.84601 38877 ft 502 kts 252°
2026-04-26 09:47 55.87269 -177.96603 38879 ft 502 kts 252°
2026-04-26 09:48 55.85461 -178.08603 38879 ft 503 kts 252°
2026-04-26 09:48 55.83631 -178.20597 38863 ft 502 kts 252°
2026-04-26 09:49 55.81799 -178.32570 38865 ft 501 kts 252°
2026-04-26 09:49 55.79956 -178.44507 38865 ft 501 kts 252°
2026-04-26 09:50 55.78096 -178.56461 38864 ft 503 kts 252°
2026-04-26 09:50 55.76231 -178.68390 38864 ft 500 kts 252°
2026-04-26 09:51 55.74354 -178.80256 38859 ft 499 kts 252°
2026-04-26 09:51 55.72489 -178.92025 38856 ft 498 kts 252°
2026-04-26 09:52 55.70598 -179.03834 38855 ft 499 kts 252°
2026-04-26 09:52 55.67726 -179.21655 38861 ft 499 kts 252°
2026-04-26 09:53 55.65812 -179.33398 38860 ft 499 kts 252°
2026-04-26 09:53 55.63878 -179.45211 38861 ft 500 kts 252°
2026-04-26 09:54 55.61929 -179.57013 38862 ft 500 kts 251°
2026-04-26 09:54 55.59967 -179.68838 38862 ft 502 kts 251°
2026-04-26 09:55 55.57985 -179.80669 38858 ft 502 kts 251°
2026-04-26 09:55 55.56005 -179.92456 38854 ft 500 kts 251°
2026-04-26 09:56 55.54010 179.95797 38857 ft 498 kts 251°
2026-04-26 09:56 55.52016 179.84091 38983 ft 498 kts 251°
2026-04-26 09:57 55.50002 179.72387 39122 ft 499 kts 251°
2026-04-26 09:57 55.47988 179.60701 39261 ft 498 kts 251°
2026-04-26 09:58 55.45953 179.49043 39398 ft 497 kts 251°
2026-04-26 09:58 55.43915 179.37391 39538 ft 498 kts 251°
2026-04-26 09:59 55.41861 179.25746 39597 ft 499 kts 251°
2026-04-26 09:59 55.39795 179.14090 39630 ft 498 kts 251°
2026-04-26 10:00 55.37716 179.02458 39626 ft 499 kts 251°
2026-04-26 10:00 55.35626 178.90820 39628 ft 500 kts 251°
2026-04-26 10:01 55.33519 178.79171 39627 ft 499 kts 251°
2026-04-26 10:01 55.31412 178.67575 39623 ft 498 kts 251°
2026-04-26 10:02 55.29302 178.55991 39622 ft 498 kts 251°
2026-04-26 10:02 55.27185 178.44435 39620 ft 497 kts 250°
2026-04-26 10:03 55.25054 178.32897 39616 ft 496 kts 250°
2026-04-26 10:03 55.22922 178.21391 39615 ft 496 kts 250°
2026-04-26 10:04 55.20767 178.09875 39619 ft 499 kts 250°
2026-04-26 10:04 55.18615 177.98405 39620 ft 499 kts 250°
2026-04-26 10:05 55.16434 177.86882 39616 ft 499 kts 250°
2026-04-26 10:05 55.14248 177.75386 39614 ft 497 kts 250°
2026-04-26 10:06 55.12057 177.63933 39611 ft 496 kts 250°
2026-04-26 10:06 55.09860 177.52529 39609 ft 496 kts 250°
2026-04-26 10:07 55.07651 177.41107 39616 ft 496 kts 250°
2026-04-26 10:07 55.05429 177.29722 39615 ft 496 kts 250°
2026-04-26 10:08 55.03202 177.18340 39616 ft 496 kts 250°
2026-04-26 10:08 55.00963 177.06985 39616 ft 495 kts 250°
2026-04-26 10:09 54.98715 176.95638 39614 ft 496 kts 250°
2026-04-26 10:09 54.96449 176.84298 39618 ft 495 kts 250°
2026-04-26 10:10 54.94190 176.73008 39612 ft 493 kts 250°
2026-04-26 10:10 54.91912 176.61728 39615 ft 494 kts 250°
2026-04-26 10:11 54.89622 176.50448 39617 ft 495 kts 250°
2026-04-26 10:11 54.87326 176.39193 39618 ft 495 kts 250°
2026-04-26 10:12 54.85033 176.28008 39608 ft 495 kts 249°
2026-04-26 10:12 54.82716 176.16769 39603 ft 494 kts 249°
2026-04-26 10:13 54.80388 176.05552 39605 ft 495 kts 249°
2026-04-26 10:13 54.78048 175.94349 39604 ft 494 kts 249°
2026-04-26 10:14 54.75696 175.83147 39602 ft 493 kts 249°
2026-04-26 10:14 54.73351 175.72015 39600 ft 492 kts 249°
2026-04-26 10:15 54.70989 175.60895 39599 ft 492 kts 249°
2026-04-26 10:15 54.68615 175.49759 39603 ft 494 kts 249°
2026-04-26 10:16 54.66230 175.38628 39601 ft 493 kts 249°
2026-04-26 10:16 54.63834 175.27533 39600 ft 493 kts 249°
2026-04-26 10:17 54.61430 175.16438 39600 ft 494 kts 249°
2026-04-26 10:17 54.59012 175.05353 39600 ft 494 kts 249°
2026-04-26 10:18 54.56579 174.94239 39601 ft 496 kts 249°
2026-04-26 10:18 54.54130 174.83144 39600 ft 496 kts 249°
2026-04-26 10:19 54.51677 174.72064 39596 ft 494 kts 249°
2026-04-26 10:19 54.49221 174.61021 39595 ft 495 kts 249°
2026-04-26 10:20 54.47167 174.51860 39595 ft 494 kts 249°
2026-04-26 10:20 54.44693 174.40853 39593 ft 494 kts 249°
2026-04-26 10:21 54.41799 174.28053 39596 ft 495 kts 248°
2026-04-26 10:21 54.39704 174.18833 39598 ft 495 kts 249°
2026-04-26 10:22 54.37194 174.07850 39597 ft 495 kts 248°
2026-04-26 10:22 54.34672 173.96875 39597 ft 494 kts 248°
2026-04-26 10:23 54.32169 173.86023 39595 ft 492 kts 248°
2026-04-26 10:23 54.29639 173.75114 39594 ft 493 kts 248°
2026-04-26 10:24 54.27095 173.64208 39594 ft 494 kts 248°
2026-04-26 10:24 54.24546 173.53313 39593 ft 493 kts 248°
2026-04-26 10:25 54.21986 173.42462 39591 ft 493 kts 248°
2026-04-26 10:25 54.19411 173.31583 39595 ft 495 kts 248°
2026-04-26 10:26 54.16820 173.20699 39595 ft 495 kts 248°
2026-04-26 10:26 54.14222 173.09825 39599 ft 495 kts 247°
2026-04-26 10:27 54.11604 172.98924 39594 ft 497 kts 248°
2026-04-26 10:27 54.08973 172.88051 39595 ft 495 kts 248°
2026-04-26 10:28 54.06348 172.77227 39594 ft 494 kts 248°
2026-04-26 10:28 54.03709 172.66417 39594 ft 494 kts 248°
2026-04-26 10:29 54.01064 172.55619 39595 ft 496 kts 248°
2026-04-26 10:29 53.98403 172.44830 39596 ft 494 kts 248°
2026-04-26 10:30 53.95745 172.34081 39593 ft 494 kts 248°
2026-04-26 10:30 53.93075 172.23358 39592 ft 493 kts 247°
2026-04-26 10:31 53.90399 172.12650 39591 ft 493 kts 247°
2026-04-26 10:31 53.87729 172.02032 39593 ft 493 kts 247°
2026-04-26 10:32 53.85030 171.91329 39595 ft 494 kts 247°
2026-04-26 10:32 53.82317 171.80632 39597 ft 495 kts 247°
2026-04-26 10:33 53.79585 171.69926 39599 ft 495 kts 247°
2026-04-26 10:33 53.76851 171.59229 39601 ft 495 kts 247°
2026-04-26 10:34 53.74110 171.48595 39597 ft 493 kts 247°
2026-04-26 10:34 53.71369 171.37974 39597 ft 494 kts 247°
2026-04-26 10:35 53.68606 171.27351 39599 ft 494 kts 247°
2026-04-26 10:35 53.65841 171.16732 39600 ft 493 kts 247°
2026-04-26 10:36 53.63058 171.06140 39606 ft 495 kts 247°
2026-04-26 10:36 53.60265 170.95534 39608 ft 496 kts 247°
2026-04-26 10:37 53.57464 170.84946 39606 ft 495 kts 247°
2026-04-26 10:37 53.54652 170.74379 39608 ft 495 kts 246°
2026-04-26 10:38 53.51831 170.63810 39606 ft 495 kts 246°
2026-04-26 10:38 53.49000 170.53263 39614 ft 495 kts 246°
2026-04-26 10:39 53.46165 170.42746 39614 ft 495 kts 246°
2026-04-26 10:39 53.43308 170.32212 39617 ft 497 kts 246°
2026-04-26 10:40 53.40467 170.21748 39616 ft 496 kts 246°
2026-04-26 10:40 53.37589 170.11236 39622 ft 496 kts 246°
2026-04-26 10:41 53.34708 170.00732 39624 ft 496 kts 246°
2026-04-26 10:41 53.31820 169.90266 39624 ft 496 kts 246°
2026-04-26 10:42 53.28921 169.79805 39625 ft 496 kts 246°
2026-04-26 10:42 53.26008 169.69361 39635 ft 496 kts 244°
2026-04-26 10:43 53.22763 169.59183 39640 ft 497 kts 243°
2026-04-26 10:43 53.19529 169.49003 39642 ft 496 kts 243°
2026-04-26 10:44 53.16259 169.38875 39641 ft 495 kts 243°
2026-04-26 10:44 53.13008 169.28761 39641 ft 496 kts 243°
2026-04-26 10:45 53.09748 169.18735 39641 ft 495 kts 243°
2026-04-26 10:45 53.06482 169.08659 39638 ft 494 kts 243°
2026-04-26 10:46 53.03204 168.98641 39654 ft 493 kts 243°
2026-04-26 10:46 52.99914 168.88598 39654 ft 496 kts 243°
2026-04-26 10:47 52.96603 168.78558 39658 ft 495 kts 243°
2026-04-26 10:47 52.93303 168.68560 39655 ft 494 kts 243°
2026-04-26 10:48 52.89987 168.58592 39659 ft 494 kts 243°
2026-04-26 10:48 52.86664 168.48631 39659 ft 494 kts 243°
2026-04-26 10:49 52.83333 168.38693 39659 ft 494 kts 243°
2026-04-26 10:49 52.79994 168.28765 39664 ft 494 kts 242°
2026-04-26 10:50 52.77214 168.20529 39666 ft 494 kts 242°
2026-04-26 10:50 52.73295 168.08965 39665 ft 494 kts 242°
2026-04-26 10:51 52.68244 167.94152 39672 ft 494 kts 243°
2026-04-26 10:52 52.64871 167.84298 39668 ft 493 kts 242°
2026-04-26 10:52 52.61503 167.74501 39676 ft 492 kts 242°
2026-04-26 10:53 52.58116 167.64691 39678 ft 495 kts 242°
2026-04-26 10:53 52.54737 167.54947 39691 ft 494 kts 242°
2026-04-26 10:54 52.49621 167.40251 39691 ft 494 kts 242°
2026-04-26 10:54 52.46203 167.30482 39696 ft 493 kts 242°
2026-04-26 10:55 52.42780 167.20743 39704 ft 493 kts 242°
2026-04-26 10:55 52.39928 167.12662 39698 ft 492 kts 242°
2026-04-26 10:56 52.35918 167.01327 39718 ft 492 kts 242°
2026-04-26 10:56 52.32482 166.91653 39715 ft 491 kts 242°
2026-04-26 10:57 52.29037 166.82017 39715 ft 491 kts 242°
2026-04-26 10:57 52.25593 166.72381 39713 ft 491 kts 242°
2026-04-26 10:58 52.22129 166.62766 39718 ft 491 kts 242°
2026-04-26 10:58 52.18670 166.53166 39728 ft 492 kts 242°
2026-04-26 10:59 52.15189 166.43557 39734 ft 493 kts 242°
2026-04-26 10:59 52.11696 166.33958 39734 ft 493 kts 242°
2026-04-26 11:00 52.08200 166.24381 39737 ft 493 kts 242°
2026-04-26 11:00 52.04696 166.14819 39748 ft 493 kts 242°
2026-04-26 11:01 52.01181 166.05267 39746 ft 492 kts 242°
2026-04-26 11:01 51.97664 165.95739 39749 ft 491 kts 241°
2026-04-26 11:02 51.94149 165.86268 39754 ft 491 kts 241°
2026-04-26 11:02 51.90649 165.76837 39756 ft 491 kts 241°
2026-04-26 11:03 51.87105 165.67366 39758 ft 491 kts 241°
2026-04-26 11:03 51.83571 165.57921 39758 ft 490 kts 241°
2026-04-26 11:04 51.80034 165.48511 39758 ft 490 kts 241°
2026-04-26 11:04 51.76488 165.39132 39760 ft 489 kts 241°
2026-04-26 11:05 51.72939 165.29766 39775 ft 489 kts 241°
2026-04-26 11:05 51.69382 165.20410 39776 ft 490 kts 241°
2026-04-26 11:06 51.66413 165.12633 39779 ft 490 kts 241°
2026-04-26 11:06 51.62246 165.01751 39779 ft 488 kts 241°
2026-04-26 11:07 51.58685 164.92477 39780 ft 488 kts 241°
2026-04-26 11:07 51.55092 164.83188 39784 ft 490 kts 241°
2026-04-26 11:08 51.51492 164.73882 39789 ft 490 kts 241°
2026-04-26 11:08 51.47881 164.64602 39789 ft 489 kts 240°
2026-04-26 11:09 51.44277 164.55351 39787 ft 488 kts 241°
2026-04-26 11:09 51.40690 164.46204 39788 ft 488 kts 240°
2026-04-26 11:10 51.37079 164.36998 39801 ft 488 kts 240°
2026-04-26 11:10 51.33461 164.27823 39800 ft 489 kts 240°
2026-04-26 11:11 51.30405 164.20109 39806 ft 490 kts 240°
2026-04-26 11:11 51.26760 164.10917 39806 ft 490 kts 240°
2026-04-26 11:12 51.23134 164.01820 39808 ft 488 kts 240°
2026-04-26 11:12 51.19465 163.92656 39806 ft 486 kts 240°
2026-04-26 11:13 51.15849 163.83648 39827 ft 485 kts 240°
2026-04-26 11:13 51.12201 163.74594 39821 ft 486 kts 240°
2026-04-26 11:14 51.08536 163.65548 39838 ft 486 kts 240°
2026-04-26 11:14 51.04877 163.56523 39840 ft 484 kts 240°
2026-04-26 11:15 51.01220 163.47555 39837 ft 482 kts 240°
2026-04-26 11:15 50.97566 163.38606 39835 ft 483 kts 240°
2026-04-26 11:16 50.93908 163.29690 39839 ft 482 kts 240°
2026-04-26 11:16 50.90252 163.20800 39848 ft 481 kts 240°
2026-04-26 11:17 50.86577 163.11905 39855 ft 483 kts 240°
2026-04-26 11:17 50.82890 163.03014 39860 ft 483 kts 240°
2026-04-26 11:18 50.79208 162.94156 39857 ft 481 kts 240°
2026-04-26 11:18 50.75526 162.85325 39858 ft 481 kts 240°
2026-04-26 11:19 50.71840 162.76520 39857 ft 481 kts 240°
2026-04-26 11:19 50.68151 162.67731 39856 ft 480 kts 240°
2026-04-26 11:20 50.65076 162.60449 39857 ft 480 kts 240°
2026-04-26 11:20 50.60770 162.50252 39856 ft 479 kts 240°
2026-04-26 11:21 50.57059 162.41510 39860 ft 479 kts 240°
2026-04-26 11:21 50.53350 162.32795 39862 ft 480 kts 240°
2026-04-26 11:22 50.49636 162.24097 39865 ft 479 kts 240°
2026-04-26 11:22 50.45925 162.15434 39862 ft 478 kts 240°
2026-04-26 11:23 50.42207 162.06790 39862 ft 476 kts 240°
2026-04-26 11:23 50.38501 161.98197 39859 ft 476 kts 240°
2026-04-26 11:24 50.34785 161.89610 39865 ft 475 kts 240°
2026-04-26 11:24 50.31072 161.81061 39863 ft 475 kts 240°
2026-04-26 11:25 50.27355 161.72517 39868 ft 477 kts 240°
2026-04-26 11:25 50.23635 161.64016 39867 ft 478 kts 240°
2026-04-26 11:26 50.19886 161.55456 39873 ft 478 kts 240°
2026-04-26 11:26 50.16124 161.46901 39873 ft 478 kts 239°
2026-04-26 11:27 50.12359 161.38380 39870 ft 477 kts 240°
2026-04-26 11:27 50.08589 161.29864 39870 ft 477 kts 239°
2026-04-26 11:28 50.04816 161.21369 39870 ft 476 kts 239°
2026-04-26 11:28 50.01042 161.12891 39866 ft 476 kts 239°
2026-04-26 11:29 49.97258 161.04431 39872 ft 476 kts 240°
2026-04-26 11:29 49.93508 160.96055 39868 ft 470 kts 240°
2026-04-26 11:30 49.90393 160.89138 39868 ft 471 kts 240°
2026-04-26 11:30 49.86005 160.79408 39869 ft 470 kts 240°
2026-04-26 11:31 49.82265 160.71091 39868 ft 471 kts 240°
2026-04-26 11:31 49.78551 160.62719 39875 ft 473 kts 240°
2026-04-26 11:32 49.74794 160.54382 39876 ft 471 kts 240°
2026-04-26 11:32 49.71050 160.46034 39878 ft 473 kts 240°
2026-04-26 11:33 49.67289 160.37699 39879 ft 474 kts 240°
2026-04-26 11:33 49.63520 160.29376 39879 ft 473 kts 240°
2026-04-26 11:34 49.59752 160.21072 39878 ft 472 kts 239°
2026-04-26 11:34 49.56014 160.12861 39875 ft 470 kts 240°
2026-04-26 11:35 49.52242 160.04603 39876 ft 472 kts 240°
2026-04-26 11:35 49.49071 159.97677 39878 ft 472 kts 239°
2026-04-26 11:36 49.44663 159.88098 39881 ft 470 kts 239°
2026-04-26 11:36 49.40895 159.79910 39877 ft 469 kts 240°
2026-04-26 11:37 49.37122 159.71756 39876 ft 469 kts 239°
2026-04-26 11:37 49.33245 159.63716 39881 ft 468 kts 238°
2026-04-26 11:38 49.29353 159.55697 39885 ft 470 kts 238°
2026-04-26 11:38 49.25408 159.47725 39885 ft 469 kts 238°
2026-04-26 11:39 49.21490 159.39754 39887 ft 468 kts 238°
2026-04-26 11:39 49.17567 159.31845 39888 ft 467 kts 237°
2026-04-26 11:40 49.13651 159.23939 39885 ft 466 kts 238°
2026-04-26 11:40 49.09737 159.16080 39885 ft 464 kts 238°
2026-04-26 11:42 48.94055 158.84797 39886 ft 464 kts 238°
2026-04-26 11:43 48.90126 158.77021 39886 ft 463 kts 238°
2026-04-26 11:43 48.86202 158.69275 39885 ft 463 kts 238°
2026-04-26 11:44 48.82281 158.61556 39884 ft 461 kts 238°
2026-04-26 11:44 48.78368 158.53872 39883 ft 459 kts 238°
2026-04-26 11:45 48.74461 158.46232 39881 ft 459 kts 238°
2026-04-26 11:45 48.70550 158.38589 39936 ft 458 kts 238°
2026-04-26 11:46 48.66658 158.31016 39942 ft 459 kts 238°
2026-04-26 11:46 48.62738 158.23405 39944 ft 457 kts 238°
2026-04-26 11:47 48.58823 158.15838 39943 ft 456 kts 238°
2026-04-26 11:47 48.54917 158.08297 39944 ft 456 kts 238°
2026-04-26 11:48 48.51018 158.00793 39943 ft 454 kts 238°
2026-04-26 11:48 48.47121 157.93305 39942 ft 454 kts 238°
2026-04-26 11:49 48.43221 157.85850 39943 ft 454 kts 238°
2026-04-26 11:49 48.39315 157.78392 39944 ft 453 kts 238°
2026-04-26 11:50 48.35407 157.70962 39942 ft 453 kts 237°
2026-04-26 11:50 48.31493 157.63529 39944 ft 453 kts 238°
2026-04-26 11:51 48.27569 157.56102 39943 ft 454 kts 238°
2026-04-26 11:51 48.23649 157.48695 39941 ft 453 kts 237°
2026-04-26 11:52 48.20381 157.42551 39944 ft 453 kts 238°
2026-04-26 11:52 48.15788 157.33921 39946 ft 454 kts 237°
2026-04-26 11:53 48.11855 157.26549 39942 ft 453 kts 237°
2026-04-26 11:54 48.05924 157.15503 39950 ft 453 kts 238°
2026-04-26 11:54 48.01974 157.08141 39949 ft 454 kts 237°
2026-04-26 11:55 47.98021 157.00819 39954 ft 452 kts 238°
2026-04-26 11:55 47.94134 156.93629 39944 ft 445 kts 238°
2026-04-26 11:56 47.90243 156.86455 39948 ft 444 kts 238°
2026-04-26 11:56 47.86348 156.79279 39951 ft 446 kts 238°
2026-04-26 11:57 47.83074 156.73280 39950 ft 444 kts 237°
2026-04-26 11:57 47.79172 156.66132 39948 ft 445 kts 237°
2026-04-26 11:58 47.75269 156.59011 39952 ft 444 kts 237°
2026-04-26 11:58 47.71384 156.51934 39950 ft 445 kts 237°
2026-04-26 11:59 47.67460 156.44807 39959 ft 446 kts 237°
2026-04-26 11:59 47.63537 156.37698 39955 ft 445 kts 237°
2026-04-26 12:00 47.59583 156.30554 39956 ft 446 kts 237°
2026-04-26 12:00 47.55673 156.23503 39953 ft 447 kts 237°
2026-04-26 12:01 47.51715 156.16405 39958 ft 446 kts 237°
2026-04-26 12:01 47.47777 156.09331 39953 ft 444 kts 237°
2026-04-26 12:02 47.43835 156.02283 39956 ft 445 kts 237°
2026-04-26 12:02 47.39877 155.95231 39961 ft 446 kts 237°
2026-04-26 12:03 47.35932 155.88209 39958 ft 443 kts 237°
2026-04-26 12:03 47.31997 155.81235 39957 ft 442 kts 237°
2026-04-26 12:04 47.28063 155.74263 39957 ft 443 kts 237°
2026-04-26 12:04 47.24124 155.67315 39958 ft 444 kts 237°
2026-04-26 12:05 47.20170 155.60362 39958 ft 441 kts 237°
2026-04-26 12:05 47.16234 155.53432 39962 ft 441 kts 237°
2026-04-26 12:06 47.12291 155.46535 39960 ft 441 kts 237°
2026-04-26 12:06 47.08349 155.39643 39965 ft 441 kts 237°
2026-04-26 12:07 47.04413 155.32787 39960 ft 438 kts 237°
2026-04-26 12:07 47.00483 155.25949 39960 ft 439 kts 237°
2026-04-26 12:08 46.96567 155.19167 39961 ft 438 kts 237°
2026-04-26 12:08 46.92633 155.12354 39982 ft 438 kts 237°
2026-04-26 12:09 46.88697 155.05566 39979 ft 437 kts 237°
2026-04-26 12:09 46.84760 154.98788 39980 ft 437 kts 237°
2026-04-26 12:10 46.80824 154.92024 39976 ft 437 kts 237°
2026-04-26 12:10 46.76881 154.85279 39981 ft 437 kts 237°
2026-04-26 12:11 46.72935 154.78530 39984 ft 437 kts 237°
2026-04-26 12:11 46.68993 154.71818 39979 ft 436 kts 237°
2026-04-26 12:12 46.65053 154.65119 39986 ft 436 kts 237°
2026-04-26 12:12 46.61103 154.58418 39984 ft 436 kts 237°
2026-04-26 12:13 46.57157 154.51746 39983 ft 434 kts 237°
2026-04-26 12:13 46.53229 154.45111 39976 ft 434 kts 236°
2026-04-26 12:14 46.49318 154.38528 39973 ft 433 kts 236°
2026-04-26 12:14 46.45382 154.31915 39978 ft 433 kts 236°
2026-04-26 12:15 46.41440 154.25313 39973 ft 433 kts 236°
2026-04-26 12:15 46.37478 154.18687 39979 ft 432 kts 236°
2026-04-26 12:16 46.33551 154.12144 39976 ft 429 kts 236°
2026-04-26 12:16 46.29627 154.05606 39985 ft 432 kts 236°
2026-04-26 12:17 46.25696 153.99089 39984 ft 432 kts 236°
2026-04-26 12:17 46.21741 153.92538 39991 ft 434 kts 236°
2026-04-26 12:18 46.17768 153.85975 39991 ft 432 kts 236°
2026-04-26 12:18 46.13802 153.79442 39992 ft 433 kts 236°
2026-04-26 12:19 46.09836 153.72923 39988 ft 432 kts 236°
2026-04-26 12:19 46.05878 153.66432 39984 ft 432 kts 236°
2026-04-26 12:20 46.01912 153.59941 39983 ft 432 kts 236°
2026-04-26 12:20 45.97940 153.53459 39988 ft 432 kts 236°
2026-04-26 12:21 45.93961 153.46983 39984 ft 432 kts 236°
2026-04-26 12:21 45.89991 153.40530 39986 ft 431 kts 236°
2026-04-26 12:22 45.86017 153.34095 39980 ft 429 kts 235°
2026-04-26 12:22 45.82015 153.27715 39984 ft 432 kts 235°
2026-04-26 12:23 45.78012 153.21327 39985 ft 431 kts 235°
2026-04-26 12:23 45.73996 153.14934 39991 ft 432 kts 235°
2026-04-26 12:24 45.69973 153.08546 39989 ft 432 kts 235°
2026-04-26 12:24 45.65946 153.02164 39992 ft 431 kts 235°
2026-04-26 12:25 45.59913 152.92637 39990 ft 431 kts 235°
2026-04-26 12:25 45.55886 152.86288 39991 ft 431 kts 235°
2026-04-26 12:26 45.51855 152.79953 39989 ft 432 kts 235°
2026-04-26 12:26 45.47837 152.73653 39990 ft 432 kts 234°
2026-04-26 12:27 45.43797 152.67334 39990 ft 432 kts 234°
2026-04-26 12:27 45.39747 152.61012 39995 ft 432 kts 234°
2026-04-26 12:28 45.35701 152.54708 39994 ft 431 kts 234°
2026-04-26 12:28 45.31657 152.48430 39988 ft 430 kts 234°
2026-04-26 12:29 45.27619 152.42166 39992 ft 431 kts 234°
2026-04-26 12:30 45.21517 152.32738 39997 ft 431 kts 234°
2026-04-26 12:30 45.17466 152.26490 39995 ft 429 kts 234°
2026-04-26 12:31 45.11382 152.17137 39996 ft 432 kts 234°
2026-04-26 12:31 45.07307 152.10892 39998 ft 432 kts 234°
2026-04-26 12:32 45.03221 152.04643 40001 ft 433 kts 234°
2026-04-26 12:33 44.97094 151.95301 39999 ft 429 kts 234°
2026-04-26 12:33 44.93039 151.89135 39994 ft 428 kts 234°
2026-04-26 12:34 44.88986 151.82979 39994 ft 429 kts 233°
2026-04-26 12:34 44.84906 151.76807 39999 ft 431 kts 233°
2026-04-26 12:35 44.80854 151.70685 39999 ft 429 kts 233°
2026-04-26 12:35 44.76783 151.64544 40000 ft 428 kts 233°
2026-04-26 12:36 44.72711 151.58426 40000 ft 428 kts 233°
2026-04-26 12:36 44.68646 151.52326 39997 ft 428 kts 233°
2026-04-26 12:37 44.64568 151.46217 39999 ft 429 kts 233°
2026-04-26 12:37 44.60479 151.40107 39999 ft 430 kts 233°
2026-04-26 12:38 44.56375 151.33993 40002 ft 430 kts 233°
2026-04-26 12:38 44.52280 151.27902 40001 ft 428 kts 233°
2026-04-26 12:39 44.48199 151.21846 39998 ft 426 kts 233°
2026-04-26 12:39 44.44118 151.15802 39998 ft 428 kts 233°
2026-04-26 12:40 44.40009 151.09725 40003 ft 431 kts 233°
2026-04-26 12:40 44.35886 151.03652 40004 ft 430 kts 233°
2026-04-26 12:41 44.31782 150.97611 40003 ft 427 kts 233°
2026-04-26 12:41 44.27692 150.91608 39998 ft 426 kts 233°
2026-04-26 12:42 44.23597 150.85606 39999 ft 427 kts 232°
2026-04-26 12:42 44.19499 150.79619 40001 ft 427 kts 232°
2026-04-26 12:43 44.15402 150.73641 40000 ft 426 kts 232°
2026-04-26 12:43 44.12001 150.68691 39998 ft 425 kts 232°
2026-04-26 12:44 44.07913 150.62754 39996 ft 425 kts 232°
2026-04-26 12:44 44.03820 150.56814 39991 ft 426 kts 232°
2026-04-26 12:45 43.99725 150.50894 39989 ft 425 kts 232°
2026-04-26 12:45 43.95634 150.44986 39989 ft 424 kts 232°
2026-04-26 12:46 43.91542 150.39089 39992 ft 425 kts 232°
2026-04-26 12:46 43.87442 150.33200 39990 ft 424 kts 232°
2026-04-26 12:47 43.83341 150.27314 39987 ft 424 kts 232°
2026-04-26 12:47 43.79251 150.21462 39988 ft 423 kts 232°
2026-04-26 12:48 43.75150 150.15603 39989 ft 424 kts 232°
2026-04-26 12:48 43.71037 150.09740 39990 ft 426 kts 232°
2026-04-26 12:49 43.66950 150.03926 39991 ft 424 kts 232°
2026-04-26 12:49 43.62840 149.98092 40005 ft 424 kts 232°
2026-04-26 12:50 43.58717 149.92249 40007 ft 424 kts 232°
2026-04-26 12:50 43.54605 149.86440 40006 ft 422 kts 232°
2026-04-26 12:51 43.50509 149.80659 40004 ft 420 kts 232°
2026-04-26 12:51 43.46416 149.74896 40004 ft 422 kts 232°
2026-04-26 12:52 43.42320 149.69144 40002 ft 420 kts 232°
2026-04-26 12:52 43.38240 149.63418 40004 ft 418 kts 232°
2026-04-26 12:53 43.34146 149.57701 40008 ft 420 kts 232°
2026-04-26 12:53 43.30056 149.51981 40010 ft 419 kts 232°
2026-04-26 12:54 43.25970 149.46292 40010 ft 418 kts 232°
2026-04-26 12:54 43.21888 149.40607 40011 ft 419 kts 232°
2026-04-26 12:55 43.17794 149.34937 40012 ft 418 kts 232°
2026-04-26 12:55 43.13718 149.29281 40010 ft 416 kts 232°
2026-04-26 12:56 43.09631 149.23644 39996 ft 416 kts 232°
2026-04-26 12:56 43.05562 149.18021 39994 ft 417 kts 232°
2026-04-26 12:57 43.01477 149.12406 39994 ft 416 kts 231°
2026-04-26 12:57 42.97402 149.06806 39996 ft 416 kts 232°
2026-04-26 12:58 42.91293 148.98440 39995 ft 413 kts 232°
2026-04-26 12:58 42.87262 148.92916 40000 ft 413 kts 232°
2026-04-26 12:59 42.83204 148.87391 39994 ft 412 kts 232°
2026-04-26 12:59 42.79148 148.81857 39998 ft 413 kts 232°
2026-04-26 13:00 42.75079 148.76334 40000 ft 413 kts 232°
2026-04-26 13:00 42.71014 148.70818 40003 ft 412 kts 232°
2026-04-26 13:01 42.66946 148.65303 40003 ft 412 kts 232°
2026-04-26 13:01 42.62883 148.59822 40003 ft 411 kts 232°
2026-04-26 13:02 42.58831 148.54357 40003 ft 409 kts 232°
2026-04-26 13:02 42.54783 148.48902 40003 ft 410 kts 232°
2026-04-26 13:03 42.50729 148.43467 40001 ft 410 kts 232°
2026-04-26 13:03 42.46674 148.38020 40003 ft 410 kts 232°
2026-04-26 13:04 42.42639 148.32626 39999 ft 408 kts 232°
2026-04-26 13:04 42.38608 148.27238 40002 ft 408 kts 232°
2026-04-26 13:05 42.34588 148.21888 40001 ft 407 kts 232°
2026-04-26 13:05 42.30554 148.16517 40001 ft 407 kts 232°
2026-04-26 13:06 42.26518 148.11160 40002 ft 407 kts 232°
2026-04-26 13:06 42.22495 148.05826 40000 ft 404 kts 232°
2026-04-26 13:07 42.18467 148.00491 40003 ft 406 kts 232°
2026-04-26 13:07 42.14435 147.95174 40002 ft 405 kts 232°
2026-04-26 13:08 42.10400 147.89857 40004 ft 405 kts 232°
2026-04-26 13:08 42.06362 147.84543 40006 ft 407 kts 232°
2026-04-26 13:09 42.02315 147.79246 40006 ft 405 kts 232°
2026-04-26 13:09 41.98274 147.73949 40005 ft 406 kts 232°
2026-04-26 13:10 41.94218 147.68668 40005 ft 404 kts 232°
2026-04-26 13:10 41.90188 147.63417 40004 ft 404 kts 232°
2026-04-26 13:11 41.86156 147.58173 40003 ft 404 kts 232°
2026-04-26 13:11 41.82129 147.52938 40003 ft 402 kts 232°
2026-04-26 13:12 41.78103 147.47738 40004 ft 401 kts 232°
2026-04-26 13:12 41.74103 147.42552 40002 ft 400 kts 232°
2026-04-26 13:13 41.70110 147.37405 40032 ft 397 kts 232°
2026-04-26 13:13 41.66113 147.32249 40038 ft 399 kts 232°
2026-04-26 13:14 41.62108 147.27102 40040 ft 399 kts 232°
2026-04-26 13:14 41.58148 147.22019 40042 ft 397 kts 232°
2026-04-26 13:15 41.54173 147.16924 40043 ft 395 kts 232°
2026-04-26 13:15 41.50845 147.12665 40040 ft 396 kts 232°
2026-04-26 13:16 41.46222 147.06763 40047 ft 395 kts 232°
2026-04-26 13:16 41.42269 147.01724 40043 ft 392 kts 232°
2026-04-26 13:17 41.36349 146.94193 40039 ft 392 kts 232°
2026-04-26 13:18 41.30440 146.86699 40036 ft 391 kts 232°
2026-04-26 13:19 41.24524 146.79215 40039 ft 390 kts 232°
2026-04-26 13:19 41.20589 146.74247 40037 ft 391 kts 232°
2026-04-26 13:20 41.16672 146.69313 40038 ft 390 kts 232°
2026-04-26 13:20 41.12742 146.64369 40040 ft 388 kts 232°
2026-04-26 13:21 41.08826 146.59451 40042 ft 388 kts 232°
2026-04-26 13:21 41.04907 146.54538 40039 ft 387 kts 232°
2026-04-26 13:22 41.00990 146.49635 40041 ft 388 kts 232°
2026-04-26 13:22 40.97077 146.44749 40040 ft 386 kts 232°
2026-04-26 13:23 40.93178 146.39884 40047 ft 384 kts 232°
2026-04-26 13:23 40.89296 146.35052 40037 ft 382 kts 232°
2026-04-26 13:24 40.85426 146.30239 40037 ft 383 kts 232°
2026-04-26 13:24 40.81548 146.25429 40043 ft 382 kts 232°
2026-04-26 13:25 40.77687 146.20647 40051 ft 379 kts 232°
2026-04-26 13:25 40.73838 146.15886 40053 ft 378 kts 233°
2026-04-26 13:26 40.70008 146.11156 40050 ft 378 kts 233°
2026-04-26 13:26 40.66167 146.06423 40048 ft 378 kts 233°
2026-04-26 13:27 40.62368 146.01749 40053 ft 376 kts 233°
2026-04-26 13:27 40.58551 145.97058 40055 ft 373 kts 233°
2026-04-26 13:28 40.54769 145.92420 40046 ft 372 kts 233°
2026-04-26 13:28 40.50977 145.87773 40051 ft 373 kts 233°
2026-04-26 13:29 40.47170 145.83120 40056 ft 374 kts 233°
2026-04-26 13:29 40.43372 145.78486 40055 ft 372 kts 233°
2026-04-26 13:30 40.39579 145.73863 40054 ft 371 kts 233°
2026-04-26 13:30 40.35806 145.69271 40052 ft 370 kts 233°
2026-04-26 13:31 40.32015 145.64665 40056 ft 372 kts 233°
2026-04-26 13:31 40.28215 145.60057 40052 ft 373 kts 233°
2026-04-26 13:32 40.24396 145.55433 40055 ft 374 kts 233°
2026-04-26 13:32 40.20579 145.50820 40067 ft 374 kts 233°
2026-04-26 13:33 40.16771 145.46224 40058 ft 372 kts 233°
2026-04-26 13:33 40.13609 145.42412 40052 ft 371 kts 232°
2026-04-26 13:34 40.09778 145.37796 40076 ft 379 kts 232°
2026-04-26 13:34 40.05853 145.33086 40055 ft 385 kts 232°
2026-04-26 13:35 40.01918 145.28367 40056 ft 384 kts 232°
2026-04-26 13:35 39.97955 145.23621 40056 ft 382 kts 232°
2026-04-26 13:36 39.94064 145.18971 40063 ft 378 kts 232°
2026-04-26 13:36 39.90186 145.14337 40056 ft 379 kts 232°
2026-04-26 13:37 39.86299 145.09708 40057 ft 379 kts 232°
2026-04-26 13:37 39.82427 145.05100 40064 ft 379 kts 232°
2026-04-26 13:38 39.78507 145.00444 40055 ft 379 kts 232°
2026-04-26 13:38 39.74644 144.95862 40058 ft 378 kts 232°
2026-04-26 13:39 39.70752 144.91253 40054 ft 378 kts 232°
2026-04-26 13:39 39.66845 144.86634 40053 ft 377 kts 231°
2026-04-26 13:40 39.63001 144.82095 40058 ft 378 kts 231°
2026-04-26 13:40 39.59109 144.77508 40056 ft 379 kts 231°
2026-04-26 13:41 39.55193 144.72901 40062 ft 380 kts 231°
2026-04-26 13:41 39.51282 144.68307 40046 ft 380 kts 231°
2026-04-26 13:42 39.47369 144.63718 40056 ft 379 kts 231°
2026-04-26 13:42 39.43447 144.59124 40050 ft 380 kts 231°
2026-04-26 13:43 39.39534 144.54552 40049 ft 378 kts 231°
2026-04-26 13:43 39.35651 144.50016 40049 ft 377 kts 231°
2026-04-26 13:44 39.31746 144.45466 40057 ft 378 kts 231°
2026-04-26 13:44 39.27839 144.40920 40056 ft 378 kts 231°
2026-04-26 13:45 39.23940 144.36389 40052 ft 378 kts 231°
2026-04-26 13:45 39.20018 144.31838 40054 ft 380 kts 231°
2026-04-26 13:46 39.16080 144.27277 40066 ft 381 kts 231°
2026-04-26 13:46 39.12133 144.22713 40061 ft 382 kts 231°
2026-04-26 13:47 39.08185 144.18155 40059 ft 382 kts 230°
2026-04-26 13:47 39.04227 144.13592 40057 ft 383 kts 230°
2026-04-26 13:48 39.00252 144.09019 40064 ft 382 kts 230°
2026-04-26 13:48 38.96325 144.04504 40058 ft 382 kts 230°
2026-04-26 13:49 38.92355 143.99947 40059 ft 383 kts 230°
2026-04-26 13:49 38.88378 143.95394 40054 ft 383 kts 230°
2026-04-26 13:50 38.84406 143.90849 40055 ft 383 kts 230°
2026-04-26 13:50 38.80420 143.86296 40054 ft 385 kts 230°
2026-04-26 13:51 38.76420 143.81737 40065 ft 385 kts 230°
2026-04-26 13:51 38.72408 143.77168 40059 ft 386 kts 229°
2026-04-26 13:52 38.68382 143.72592 40065 ft 388 kts 229°
2026-04-26 13:52 38.64356 143.68027 40059 ft 385 kts 229°
2026-04-26 13:53 38.59906 143.64045 40069 ft 399 kts 219°
2026-04-26 13:53 38.54779 143.61039 40062 ft 407 kts 214°
2026-04-26 13:54 38.49580 143.58157 40061 ft 408 kts 214°
2026-04-26 13:54 38.44344 143.55285 40063 ft 410 kts 214°
2026-04-26 13:55 38.37372 143.51454 40064 ft 410 kts 214°
2026-04-26 13:56 38.28633 143.46668 40067 ft 412 kts 214°
2026-04-26 13:56 38.23377 143.43795 40059 ft 410 kts 214°
2026-04-26 13:57 38.18152 143.40944 40061 ft 408 kts 214°
2026-04-26 13:57 38.12934 143.38099 40051 ft 409 kts 214°
2026-04-26 13:58 38.07706 143.35255 40060 ft 410 kts 214°
2026-04-26 13:58 38.02473 143.32413 40058 ft 410 kts 214°
2026-04-26 13:59 37.97220 143.29563 40066 ft 411 kts 213°
2026-04-26 13:59 37.91945 143.26707 40053 ft 413 kts 213°
2026-04-26 14:00 37.81365 143.20995 40056 ft 412 kts 213°
2026-04-26 14:01 37.76091 143.18153 40058 ft 412 kts 213°
2026-04-26 14:01 37.70798 143.15307 40056 ft 413 kts 213°
2026-04-26 14:02 37.65531 143.12480 40070 ft 412 kts 213°
2026-04-26 14:02 37.60250 143.09650 40054 ft 413 kts 213°
2026-04-26 14:03 37.54973 143.06829 40066 ft 412 kts 212°
2026-04-26 14:03 37.49695 143.04008 40061 ft 412 kts 212°
2026-04-26 14:04 37.44415 143.01192 40064 ft 413 kts 212°
2026-04-26 14:04 37.39115 142.98369 40064 ft 414 kts 212°
2026-04-26 14:05 37.33812 142.95550 40056 ft 414 kts 212°
2026-04-26 14:05 37.28493 142.92726 40070 ft 415 kts 212°
2026-04-26 14:06 37.23190 142.89919 40058 ft 412 kts 212°
2026-04-26 14:06 37.17917 142.87126 40055 ft 412 kts 212°
2026-04-26 14:07 37.12617 142.84325 40057 ft 414 kts 213°
2026-04-26 14:07 37.07605 142.80978 40069 ft 408 kts 217°
2026-04-26 14:08 37.02882 142.77657 40063 ft 406 kts 218°
2026-04-26 14:08 36.97967 142.74181 40067 ft 406 kts 217°
2026-04-26 14:09 36.93055 142.70725 40067 ft 405 kts 217°
2026-04-26 14:09 36.88143 142.67269 40062 ft 405 kts 217°
2026-04-26 14:10 36.83210 142.63804 40061 ft 407 kts 217°
2026-04-26 14:10 36.78275 142.60345 40057 ft 407 kts 217°
2026-04-26 14:11 36.70854 142.55152 40056 ft 407 kts 217°
2026-04-26 14:11 36.65924 142.51707 40066 ft 405 kts 217°
2026-04-26 14:12 36.60998 142.48270 40081 ft 407 kts 217°
2026-04-26 14:12 36.56043 142.44818 40083 ft 409 kts 217°
2026-04-26 14:13 36.48630 142.39669 40046 ft 408 kts 216°
2026-04-26 14:14 36.43644 142.36208 40048 ft 408 kts 217°
2026-04-26 14:14 36.38718 142.32790 40046 ft 407 kts 216°
2026-04-26 14:15 36.33771 142.29376 40051 ft 407 kts 216°
2026-04-26 14:15 36.28827 142.25948 40052 ft 407 kts 216°
2026-04-26 14:16 36.23875 142.22544 40054 ft 408 kts 216°
2026-04-26 14:16 36.18901 142.19112 40047 ft 409 kts 216°
2026-04-26 14:17 36.13928 142.15693 40052 ft 409 kts 217°
2026-04-26 14:17 36.09405 142.11620 40047 ft 399 kts 228°
2026-04-26 14:18 36.06314 142.07417 40053 ft 395 kts 236°
2026-04-26 14:18 36.03518 142.01631 40062 ft 391 kts 246°
2026-04-26 14:19 36.01298 141.95487 40058 ft 392 kts 245°
2026-04-26 14:19 35.99081 141.89354 40052 ft 390 kts 246°
2026-04-26 14:20 35.96859 141.83211 40053 ft 391 kts 246°
2026-04-26 14:20 35.95088 141.76875 40052 ft 393 kts 255°
2026-04-26 14:21 35.94456 141.70165 40047 ft 398 kts 265°
2026-04-26 14:21 35.94488 141.63328 40053 ft 398 kts 265°
2026-04-26 14:22 35.94520 141.56530 40035 ft 389 kts 265°
2026-04-26 14:22 35.94541 141.53216 39470 ft 386 kts 265°
2026-04-26 14:22 35.94555 141.49911 38867 ft 381 kts 265°
2026-04-26 14:22 35.94562 141.46658 38275 ft 378 kts 265°
2026-04-26 14:23 35.94572 141.43417 37628 ft 376 kts 265°
2026-04-26 14:23 35.94589 141.40206 37091 ft 372 kts 264°
2026-04-26 14:23 35.94599 141.37027 36550 ft 372 kts 264°
2026-04-26 14:23 35.94606 141.33804 36009 ft 381 kts 264°
2026-04-26 14:24 35.94608 141.30497 35415 ft 395 kts 264°
2026-04-26 14:24 35.94614 141.27050 34788 ft 408 kts 264°
2026-04-26 14:24 35.94629 141.23540 34129 ft 411 kts 264°
2026-04-26 14:24 35.94639 141.19999 33438 ft 414 kts 264°
2026-04-26 14:25 35.94641 141.16440 32731 ft 416 kts 264°
2026-04-26 14:25 35.94645 141.12855 31980 ft 418 kts 264°
2026-04-26 14:25 35.94650 141.09264 31209 ft 422 kts 264°
2026-04-26 14:25 35.94652 141.05628 30398 ft 424 kts 264°
2026-04-26 14:26 35.94728 141.01979 29559 ft 429 kts 269°
2026-04-26 14:26 35.95163 140.98324 28731 ft 434 kts 275°
2026-04-26 14:26 35.95971 140.94735 27901 ft 434 kts 282°
2026-04-26 14:26 35.97143 140.91280 27065 ft 437 kts 289°
2026-04-26 14:27 35.98663 140.88009 26239 ft 441 kts 295°
2026-04-26 14:27 36.00288 140.84827 25408 ft 438 kts 295°
2026-04-26 14:27 36.01919 140.81615 24564 ft 435 kts 296°
2026-04-26 14:27 36.03529 140.78458 23755 ft 430 kts 297°
2026-04-26 14:28 36.05114 140.75361 22954 ft 424 kts 297°
2026-04-26 14:28 36.06675 140.72297 22162 ft 419 kts 297°
2026-04-26 14:28 36.08214 140.69266 21386 ft 414 kts 297°
2026-04-26 14:28 36.09739 140.66263 20617 ft 411 kts 297°
2026-04-26 14:29 36.11260 140.63270 19853 ft 410 kts 297°
2026-04-26 14:29 36.12775 140.60281 19090 ft 409 kts 297°
2026-04-26 14:29 36.14280 140.57305 18333 ft 408 kts 297°
2026-04-26 14:29 36.15774 140.54360 17585 ft 402 kts 297°
2026-04-26 14:30 36.17256 140.51437 16845 ft 399 kts 297°
2026-04-26 14:30 36.18698 140.48578 16123 ft 398 kts 297°
2026-04-26 14:30 36.20058 140.45574 15379 ft 390 kts 289°
2026-04-26 14:30 36.20846 140.42460 14689 ft 383 kts 277°
2026-04-26 14:31 36.21099 140.39212 14274 ft 374 kts 268°
2026-04-26 14:31 36.21154 140.35988 13953 ft 377 kts 269°
2026-04-26 14:31 36.20925 140.32787 13656 ft 373 kts 255°
2026-04-26 14:31 36.20079 140.29765 13362 ft 370 kts 242°
2026-04-26 14:32 36.18681 140.27102 13074 ft 370 kts 229°
2026-04-26 14:32 36.16819 140.24941 12790 ft 368 kts 216°
2026-04-26 14:32 36.14590 140.23386 12504 ft 368 kts 203°
2026-04-26 14:32 36.12119 140.22531 12217 ft 369 kts 191°
2026-04-26 14:33 36.09584 140.22022 11928 ft 369 kts 191°
2026-04-26 14:33 36.07054 140.21521 11641 ft 369 kts 190°
2026-04-26 14:33 36.04523 140.21028 11335 ft 367 kts 190°
2026-04-26 14:33 36.02010 140.20563 11095 ft 360 kts 185°
2026-04-26 14:34 35.99594 140.20556 11060 ft 333 kts 181°
2026-04-26 14:34 35.97352 140.20495 11025 ft 310 kts 183°
2026-04-26 14:34 35.95274 140.20427 10976 ft 289 kts 182°
2026-04-26 14:34 35.93333 140.20397 10906 ft 271 kts 182°
2026-04-26 14:35 35.91487 140.20376 10752 ft 262 kts 181°
2026-04-26 14:35 35.89640 140.20345 10608 ft 270 kts 182°
2026-04-26 14:35 35.87750 140.20307 10445 ft 272 kts 182°
2026-04-26 14:35 35.85844 140.20276 10272 ft 273 kts 181°
2026-04-26 14:36 35.83952 140.20247 10103 ft 272 kts 181°
2026-04-26 14:36 35.82054 140.20214 9919 ft 273 kts 181°
2026-04-26 14:36 35.80155 140.20175 9747 ft 272 kts 181°
2026-04-26 14:36 35.78265 140.20155 9567 ft 271 kts 179°
2026-04-26 14:37 35.76387 140.20302 9396 ft 271 kts 178°
2026-04-26 14:37 35.74493 140.20342 9210 ft 271 kts 179°
2026-04-26 14:37 35.72611 140.20398 9035 ft 270 kts 178°
2026-04-26 14:37 35.70729 140.20493 8849 ft 271 kts 178°
2026-04-26 14:38 35.68853 140.20589 8670 ft 268 kts 178°
2026-04-26 14:38 35.67042 140.20674 8492 ft 254 kts 178°
2026-04-26 14:38 35.65333 140.20749 8307 ft 241 kts 178°
2026-04-26 14:38 35.64241 140.20800 8189 ft 236 kts 178°
2026-04-26 14:39 35.62069 140.20853 8092 ft 229 kts 183°
2026-04-26 14:39 35.60470 140.20831 8096 ft 232 kts 177°
2026-04-26 14:39 35.58846 140.20905 8099 ft 233 kts 178°
2026-04-26 14:39 35.57222 140.20930 8095 ft 233 kts 180°
2026-04-26 14:40 35.55607 140.20933 8097 ft 233 kts 180°
2026-04-26 14:40 35.54002 140.20944 8096 ft 231 kts 179°
2026-04-26 14:40 35.52380 140.20961 8099 ft 232 kts 179°
2026-04-26 14:40 35.50761 140.20981 8096 ft 232 kts 177°
2026-04-26 14:41 35.49260 140.21580 8096 ft 233 kts 147°
2026-04-26 14:41 35.48104 140.22978 8103 ft 234 kts 128°
2026-04-26 14:41 35.47090 140.24545 8101 ft 236 kts 131°
2026-04-26 14:41 35.46052 140.26100 8101 ft 235 kts 130°
2026-04-26 14:42 35.45023 140.27660 8105 ft 235 kts 130°
2026-04-26 14:42 35.43995 140.29225 8105 ft 235 kts 130°
2026-04-26 14:42 35.42955 140.30771 8106 ft 234 kts 135°
2026-04-26 14:42 35.41575 140.31759 8101 ft 232 kts 161°
2026-04-26 14:43 35.40114 140.32606 8103 ft 234 kts 150°
2026-04-26 14:43 35.38695 140.33593 8077 ft 234 kts 153°
2026-04-26 14:43 35.37253 140.34496 8080 ft 233 kts 154°
2026-04-26 14:43 35.35797 140.35362 8078 ft 232 kts 156°
2026-04-26 14:44 35.34231 140.35693 8080 ft 231 kts 185°
2026-04-26 14:44 35.32620 140.35639 8075 ft 233 kts 175°
2026-04-26 14:44 35.30997 140.35837 8080 ft 233 kts 175°
2026-04-26 14:44 35.29388 140.35956 8077 ft 232 kts 178°
2026-04-26 14:45 35.27773 140.36011 8080 ft 232 kts 179°
2026-04-26 14:45 35.26700 140.36039 8078 ft 232 kts 181°
2026-04-26 14:45 35.24723 140.35123 8075 ft 234 kts 218°
2026-04-26 14:45 35.23786 140.33514 8073 ft 237 kts 245°
2026-04-26 14:46 35.23152 140.31667 8080 ft 238 kts 246°
2026-04-26 14:46 35.22542 140.29757 8079 ft 237 kts 247°
2026-04-26 14:46 35.21933 140.27876 8076 ft 238 kts 246°
2026-04-26 14:46 35.21321 140.26022 8079 ft 238 kts 246°
2026-04-26 14:47 35.20704 140.24155 8074 ft 237 kts 247°
2026-04-26 14:47 35.20474 140.22174 8077 ft 240 kts 275°
2026-04-26 14:47 35.20590 140.20136 8074 ft 241 kts 266°
2026-04-26 14:47 35.20497 140.18097 8075 ft 241 kts 265°
2026-04-26 14:48 35.20458 140.16052 8076 ft 241 kts 268°
2026-04-26 14:48 35.20474 140.13974 8074 ft 241 kts 269°
2026-04-26 14:48 35.20493 140.11927 8078 ft 241 kts 268°
2026-04-26 14:48 35.20499 140.09908 8074 ft 241 kts 268°
2026-04-26 14:49 35.20502 140.07860 8074 ft 241 kts 268°
2026-04-26 14:49 35.20506 140.05812 7815 ft 243 kts 268°
2026-04-26 14:49 35.20509 140.03784 7567 ft 236 kts 268°
2026-04-26 14:49 35.20510 140.01694 6920 ft 249 kts 268°
2026-04-26 14:50 35.20516 139.99594 6562 ft 246 kts 268°
2026-04-26 14:50 35.20519 139.97516 6164 ft 245 kts 268°
2026-04-26 14:50 35.20519 139.95423 5766 ft 244 kts 268°
2026-04-26 14:50 35.20520 139.93360 5361 ft 243 kts 268°
2026-04-26 14:51 35.20524 139.91286 4936 ft 243 kts 268°
2026-04-26 14:51 35.20527 139.89230 4558 ft 242 kts 268°
2026-04-26 14:51 35.20528 139.87172 4162 ft 241 kts 268°
2026-04-26 14:51 35.20529 139.85152 4079 ft 237 kts 268°
2026-04-26 14:52 35.20645 139.83128 4050 ft 243 kts 286°
2026-04-26 14:52 35.21579 139.81418 4070 ft 246 kts 319°
2026-04-26 14:52 35.23080 139.80531 4062 ft 238 kts 346°
2026-04-26 14:52 35.24677 139.80014 4077 ft 235 kts 347°
2026-04-26 14:53 35.26254 139.79542 3824 ft 234 kts 347°
2026-04-26 14:53 35.27830 139.79054 3576 ft 233 kts 347°
2026-04-26 14:53 35.29383 139.78556 3565 ft 231 kts 346°
2026-04-26 14:53 35.30945 139.78130 3546 ft 225 kts 359°
2026-04-26 14:54 35.32407 139.78583 3315 ft 216 kts 32°
2026-04-26 14:54 35.33624 139.79633 3034 ft 214 kts 39°
2026-04-26 14:54 35.34809 139.80721 2818 ft 211 kts 40°
2026-04-26 14:54 35.35987 139.81799 2561 ft 210 kts 39°
2026-04-26 14:55 35.37164 139.82857 2331 ft 209 kts 38°
2026-04-26 14:55 35.38327 139.83902 2082 ft 207 kts 38°
2026-04-26 14:55 35.39448 139.84919 2091 ft 192 kts 38°
2026-04-26 14:55 35.40494 139.85860 2074 ft 178 kts 38°
2026-04-26 14:56 35.41471 139.86708 2066 ft 169 kts 32°
2026-04-26 14:56 35.42614 139.86855 2011 ft 168 kts 352°
2026-04-26 14:56 35.43763 139.86753 2064 ft 164 kts
2026-04-26 14:56 35.44906 139.86791 2050 ft 165 kts 353°
2026-04-26 14:57 35.45878 139.86090 1935 ft 172 kts 324°
2026-04-26 14:57 35.46893 139.85470 1697 ft 152 kts 336°
2026-04-26 14:57 35.47819 139.84837 1482 ft 153 kts 332°
2026-04-26 14:57 35.48743 139.84209 1293 ft 150 kts 331°
2026-04-26 14:58 35.49641 139.83577 1092 ft 149 kts 331°
2026-04-26 14:58 35.50544 139.82941 896 ft 149 kts 331°
2026-04-26 14:58 35.51438 139.82305 715 ft 149 kts 330°
2026-04-26 14:58 35.52330 139.81659 487 ft 147 kts 331°
2026-04-26 14:59 35.53220 139.81033 294 ft 148 kts 330°
2026-04-26 14:59 35.54110 139.80409 85 ft 146 kts 331°
2026-04-26 14:59 35.54912 139.79843 35 ft 106 kts 331°
2026-04-26 14:59 35.55097 139.79712 32 ft 77 kts 330°
2026-04-26 15:00 35.55483 139.79342 29 ft 27 kts 301°
2026-04-26 15:00 35.55498 139.79213 31 ft 12 kts 226°
2026-04-26 15:00 35.55463 139.79203 31 ft 5 kts 159°
2026-04-26 15:00 35.55402 139.79241 32 ft 15 kts 149°
2026-04-26 15:01 35.55307 139.79310 33 ft 16 kts 149°
2026-04-26 15:01 35.55204 139.79385 32 ft 18 kts 149°
2026-04-26 15:01 35.55133 139.79417 32 ft 5 kts 205°
2026-04-26 15:01 35.55091 139.79342 31 ft 13 kts 239°
2026-04-26 15:02 35.55048 139.79268 31 ft 4 kts 200°
2026-04-26 15:02 35.55010 139.79282 30 ft 7 kts 154°
2026-04-26 15:02 35.54977 139.79298 32 ft 2 kts 159°
2026-04-26 15:02 35.54971 139.79301 32 ft 0 kts 160°